Observation data for Clyde on 12/13/2019      Previous  Date       Current Mesonet Observations  Soil Data  Daily Summary Page  Observations in Plain Language
KCL2 130600Z 22009KT 10/06 A2998 RMK A01 T00950055  RH  076%=      5-min Rain = 0
KCL2 130601Z 22009KT 10/05 A2998 RMK A01 T00950054  RH  076%=      5-min Rain = 0
KCL2 130602Z 22009KT 09/05 A2998 RMK A01 T00940054  RH  076%=      5-min Rain = 0
KCL2 130603Z 22009KT 09/05 A2998 RMK A01 T00940054  RH  076%=      5-min Rain = 0
KCL2 130604Z 22008KT 09/05 A2998 RMK A01 T00940054  RH  076%=      5-min Rain = 0
KCL2 130605Z 23010KT 09/05 A2998 RMK A01 T00940054  RH  076%=      5-min Rain = 0
KCL2 130606Z 22009KT 09/05 A2998 RMK A01 T00930054  RH  076%=      5-min Rain = 0
KCL2 130607Z 22009KT 09/05 A2998 RMK A01 T00930054  RH  077%=      5-min Rain = 0
KCL2 130608Z 22009KT 09/05 A2998 RMK A01 T00930054  RH  077%=      5-min Rain = 0
KCL2 130609Z 22009KT 09/05 A2998 RMK A01 T00930054  RH  077%=      5-min Rain = 0
KCL2 130610Z 22008KT 09/05 A2998 RMK A01 T00920054  RH  077%=      5-min Rain = 0
KCL2 130611Z 22008KT 09/05 A2998 RMK A01 T00930054  RH  077%=      5-min Rain = 0
KCL2 130612Z 22008KT 09/05 A2998 RMK A01 T00920053  RH  077%=      5-min Rain = 0
KCL2 130613Z 22009KT 09/05 A2997 RMK A01 T00910053  RH  077%=      5-min Rain = 0
KCL2 130614Z 22008KT 09/05 A2997 RMK A01 T00910054  RH  078%=      5-min Rain = 0
KCL2 130615Z 22007KT 09/05 A2997 RMK A01 T00900053  RH  078%=      5-min Rain = 0
KCL2 130616Z 22008KT 09/05 A2997 RMK A01 T00890052  RH  078%=      5-min Rain = 0
KCL2 130617Z 22008KT 09/05 A2997 RMK A01 T00880052  RH  078%=      5-min Rain = 0
KCL2 130618Z 22007KT 09/05 A2997 RMK A01 T00880053  RH  078%=      5-min Rain = 0
KCL2 130619Z 22007KT 09/05 A2997 RMK A01 T00890053  RH  078%=      5-min Rain = 0
KCL2 130620Z 22008KT 09/05 A2997 RMK A01 T00890053  RH  078%=      5-min Rain = 0
KCL2 130621Z 22007KT 09/05 A2997 RMK A01 T00880053  RH  078%=      5-min Rain = 0
KCL2 130622Z 21007KT 09/05 A2997 RMK A01 T00890053  RH  078%=      5-min Rain = 0
KCL2 130623Z 22007KT 09/05 A2997 RMK A01 T00880052  RH  078%=      5-min Rain = 0
KCL2 130624Z 22008KT 09/05 A2997 RMK A01 T00870052  RH  078%=      5-min Rain = 0
KCL2 130625Z 22008KT 09/05 A2997 RMK A01 T00870053  RH  079%=      5-min Rain = 0
KCL2 130626Z 22008KT 09/05 A2997 RMK A01 T00870053  RH  079%=      5-min Rain = 0
KCL2 130627Z 21008KT 09/05 A2997 RMK A01 T00870053  RH  079%=      5-min Rain = 0
KCL2 130628Z 22008KT 09/05 A2996 RMK A01 T00880054  RH  079%=      5-min Rain = 0
KCL2 130629Z 22008KT 09/05 A2996 RMK A01 T00880054  RH  079%=      5-min Rain = 0
KCL2 130630Z 22009KT 09/05 A2996 RMK A01 T00890054  RH  079%=      5-min Rain = 0
KCL2 130631Z 22009KT 09/06 A2996 RMK A01 T00890055  RH  079%=      5-min Rain = 0
KCL2 130632Z 22008KT 09/06 A2996 RMK A01 T00890055  RH  079%=      5-min Rain = 0
KCL2 130633Z 22008KT 09/06 A2996 RMK A01 T00890055  RH  079%=      5-min Rain = 0
KCL2 130634Z 22009KT 09/06 A2996 RMK A01 T00890055  RH  079%=      5-min Rain = 0
KCL2 130635Z 22009KT 09/06 A2996 RMK A01 T00900056  RH  079%=      5-min Rain = 0
KCL2 130636Z 22009KT 09/06 A2996 RMK A01 T00900056  RH  079%=      5-min Rain = 0
KCL2 130637Z 22008KT 09/06 A2996 RMK A01 T00910056  RH  079%=      5-min Rain = 0
KCL2 130638Z 22009KT 09/06 A2996 RMK A01 T00910056  RH  079%=      5-min Rain = 0
KCL2 130639Z 22009KT 09/06 A2996 RMK A01 T00910057  RH  079%=      5-min Rain = 0
KCL2 130640Z 22008KT 09/06 A2996 RMK A01 T00920057  RH  078%=      5-min Rain = 0
KCL2 130641Z 22009KT 09/06 A2996 RMK A01 T00920057  RH  078%=      5-min Rain = 0
KCL2 130642Z 22009KT 09/06 A2996 RMK A01 T00920057  RH  078%=      5-min Rain = 0
KCL2 130643Z 22009KT 09/06 A2996 RMK A01 T00930057  RH  078%=      5-min Rain = 0
KCL2 130644Z 22009KT 09/06 A2996 RMK A01 T00930057  RH  078%=      5-min Rain = 0
KCL2 130645Z 22009KT 09/06 A2996 RMK A01 T00930057  RH  078%=      5-min Rain = 0
KCL2 130646Z 22010KT 09/06 A2996 RMK A01 T00930058  RH  078%=      5-min Rain = 0
KCL2 130647Z 22009KT 09/06 A2996 RMK A01 T00940058  RH  078%=      5-min Rain = 0
KCL2 130648Z 22010KT 10/06 A2996 RMK A01 T00950058  RH  078%=      5-min Rain = 0
KCL2 130649Z 22009KT 10/06 A2996 RMK A01 T00950058  RH  077%=      5-min Rain = 0
KCL2 130650Z 22009KT 10/06 A2996 RMK A01 T00950057  RH  078%=      5-min Rain = 0
KCL2 130651Z 23010KT 09/06 A2996 RMK A01 T00940058  RH  078%=      5-min Rain = 0
KCL2 130652Z 23009KT 09/06 A2996 RMK A01 T00940058  RH  078%=      5-min Rain = 0
KCL2 130653Z 23010KT 10/06 A2996 RMK A01 T00950058  RH  078%=      5-min Rain = 0
KCL2 130654Z 22010KT 10/06 A2996 RMK A01 T00960059  RH  078%=      5-min Rain = 0
KCL2 130655Z 23010KT 10/06 A2996 RMK A01 T00970059  RH  077%=      5-min Rain = 0
KCL2 130656Z 23009KT 10/06 A2996 RMK A01 T00970059  RH  077%=      5-min Rain = 0
KCL2 130657Z 23009KT 10/06 A2996 RMK A01 T00980059  RH  077%=      5-min Rain = 0
KCL2 130658Z 23009KT 10/06 A2995 RMK A01 T00970059  RH  077%=      5-min Rain = 0
KCL2 130659Z 22009KT 10/06 A2995 RMK A01 T00970059  RH  077%=      5-min Rain = 0
KCL2 130700Z 22011KT 10/06 A2995 RMK A01 T00970059  RH  078%=      5-min Rain = 0
KCL2 130701Z 23009KT 10/06 A2995 RMK A01 T00970059  RH  077%=      5-min Rain = 0
KCL2 130702Z 22009KT 10/06 A2995 RMK A01 T00970059  RH  077%=      5-min Rain = 0
KCL2 130703Z 22010KT 10/06 A2995 RMK A01 T00970059  RH  077%=      5-min Rain = 0
KCL2 130704Z 22008KT 10/06 A2995 RMK A01 T00970059  RH  077%=      5-min Rain = 0
KCL2 130705Z 22009KT 10/06 A2995 RMK A01 T00970059  RH  077%=      5-min Rain = 0
KCL2 130706Z 22008KT 10/06 A2995 RMK A01 T00960059  RH  078%=      5-min Rain = 0
KCL2 130707Z 22009KT 10/06 A2995 RMK A01 T00960059  RH  078%=      5-min Rain = 0
KCL2 130708Z 22009KT 10/06 A2995 RMK A01 T00950059  RH  078%=      5-min Rain = 0
KCL2 130709Z 22010KT 10/06 A2995 RMK A01 T00950059  RH  078%=      5-min Rain = 0
KCL2 130710Z 22009KT 10/06 A2995 RMK A01 T00950059  RH  078%=      5-min Rain = 0
KCL2 130711Z 22008KT 10/06 A2995 RMK A01 T00950059  RH  078%=      5-min Rain = 0
KCL2 130712Z 22009KT 10/06 A2995 RMK A01 T00960059  RH  078%=      5-min Rain = 0
KCL2 130713Z 22009KT 10/06 A2995 RMK A01 T00950059  RH  078%=      5-min Rain = 0
KCL2 130714Z 22011KT 10/06 A2995 RMK A01 T00950059  RH  078%=      5-min Rain = 0
KCL2 130715Z 22009KT 10/06 A2995 RMK A01 T00950059  RH  078%=      5-min Rain = 0
KCL2 130716Z 22009KT 10/06 A2995 RMK A01 T00960059  RH  078%=      5-min Rain = 0
KCL2 130717Z 22009KT 10/06 A2995 RMK A01 T00960059  RH  078%=      5-min Rain = 0
KCL2 130718Z 22009KT 10/06 A2995 RMK A01 T00960059  RH  078%=      5-min Rain = 0
KCL2 130719Z 22009KT 10/06 A2995 RMK A01 T00950058  RH  078%=      5-min Rain = 0
KCL2 130720Z 22011KT 10/06 A2995 RMK A01 T00950059  RH  078%=      5-min Rain = 0
KCL2 130721Z 22010KT 10/06 A2995 RMK A01 T00950059  RH  078%=      5-min Rain = 0
KCL2 130722Z 22008KT 10/06 A2995 RMK A01 T00950059  RH  078%=      5-min Rain = 0
KCL2 130723Z 23010KT 09/06 A2995 RMK A01 T00940058  RH  078%=      5-min Rain = 0
KCL2 130724Z 22009KT 09/06 A2995 RMK A01 T00940058  RH  078%=      5-min Rain = 0
KCL2 130725Z 22011KT 09/06 A2995 RMK A01 T00940058  RH  078%=      5-min Rain = 0
KCL2 130726Z 22010KT 10/06 A2995 RMK A01 T00950059  RH  078%=      5-min Rain = 0
KCL2 130727Z 22010KT 10/06 A2995 RMK A01 T00950058  RH  078%=      5-min Rain = 0
KCL2 130728Z 22010KT 10/06 A2995 RMK A01 T00950058  RH  078%=      5-min Rain = 0
KCL2 130729Z 22011KT 09/06 A2994 RMK A01 T00940058  RH  078%=      5-min Rain = 0
KCL2 130730Z 22010KT 10/06 A2994 RMK A01 T00950059  RH  078%=      5-min Rain = 0
KCL2 130731Z 22009KT 10/06 A2994 RMK A01 T00950058  RH  078%=      5-min Rain = 0
KCL2 130732Z 22011KT 09/06 A2994 RMK A01 T00940058  RH  078%=      5-min Rain = 0
KCL2 130733Z 23011KT 09/06 A2994 RMK A01 T00940058  RH  078%=      5-min Rain = 0
KCL2 130734Z 22012KT 09/06 A2994 RMK A01 T00940058  RH  078%=      5-min Rain = 0
KCL2 130735Z 22010KT 10/06 A2994 RMK A01 T00950058  RH  078%=      5-min Rain = 0
KCL2 130736Z 22011KT 09/06 A2994 RMK A01 T00940058  RH  078%=      5-min Rain = 0
KCL2 130737Z 22010KT 09/06 A2994 RMK A01 T00940058  RH  078%=      5-min Rain = 0
KCL2 130738Z 22009KT 09/06 A2994 RMK A01 T00940058  RH  078%=      5-min Rain = 0
KCL2 130739Z 22011KT 09/06 A2993 RMK A01 T00940057  RH  078%=      5-min Rain = 0
KCL2 130740Z 22010KT 09/06 A2993 RMK A01 T00940058  RH  078%=      5-min Rain = 0
KCL2 130741Z 22011KT 09/06 A2993 RMK A01 T00940057  RH  078%=      5-min Rain = 0
KCL2 130742Z 22011KT 09/06 A2993 RMK A01 T00940057  RH  078%=      5-min Rain = 0
KCL2 130743Z 22011KT 09/06 A2993 RMK A01 T00940057  RH  078%=      5-min Rain = 0
KCL2 130744Z 22011KT 09/06 A2993 RMK A01 T00940057  RH  078%=      5-min Rain = 0
KCL2 130745Z 22011KT 09/06 A2993 RMK A01 T00940057  RH  078%=      5-min Rain = 0
KCL2 130746Z 22011KT 09/06 A2993 RMK A01 T00940057  RH  078%=      5-min Rain = 0
KCL2 130747Z 22011KT 09/06 A2993 RMK A01 T00940057  RH  078%=      5-min Rain = 0
KCL2 130748Z 22010KT 10/06 A2993 RMK A01 T00950057  RH  077%=      5-min Rain = 0
KCL2 130749Z 22010KT 10/06 A2993 RMK A01 T00950057  RH  077%=      5-min Rain = 0
KCL2 130750Z 22011KT 09/06 A2993 RMK A01 T00940057  RH  078%=      5-min Rain = 0
KCL2 130751Z 22012KT 09/06 A2993 RMK A01 T00940057  RH  078%=      5-min Rain = 0
KCL2 130752Z 22010KT 09/06 A2993 RMK A01 T00940057  RH  078%=      5-min Rain = 0
KCL2 130753Z 22011KT 09/06 A2993 RMK A01 T00940057  RH  077%=      5-min Rain = 0
KCL2 130754Z 22011KT 09/06 A2993 RMK A01 T00940057  RH  077%=      5-min Rain = 0
KCL2 130755Z 22009KT 09/06 A2993 RMK A01 T00940057  RH  077%=      5-min Rain = 0
KCL2 130756Z 22010KT 09/06 A2993 RMK A01 T00940057  RH  078%=      5-min Rain = 0
KCL2 130757Z 22010KT 09/06 A2993 RMK A01 T00940057  RH  078%=      5-min Rain = 0
KCL2 130758Z 23009KT 09/06 A2993 RMK A01 T00940057  RH  078%=      5-min Rain = 0
KCL2 130759Z 22008KT 09/06 A2993 RMK A01 T00940056  RH  077%=      5-min Rain = 0
KCL2 130800Z 22010KT 09/06 A2993 RMK A01 T00930056  RH  078%=      5-min Rain = 0
KCL2 130801Z 22008KT 09/06 A2993 RMK A01 T00930057  RH  078%=      5-min Rain = 0
KCL2 130802Z 22008KT 09/06 A2992 RMK A01 T00920056  RH  078%=      5-min Rain = 0
KCL2 130803Z 22008KT 09/06 A2992 RMK A01 T00920057  RH  078%=      5-min Rain = 0
KCL2 130804Z 22009KT 09/06 A2992 RMK A01 T00920056  RH  078%=      5-min Rain = 0
KCL2 130805Z 22008KT 09/06 A2992 RMK A01 T00920056  RH  078%=      5-min Rain = 0
KCL2 130806Z 22008KT 09/06 A2992 RMK A01 T00910056  RH  079%=      5-min Rain = 0
KCL2 130807Z 22009KT 09/06 A2992 RMK A01 T00900056  RH  079%=      5-min Rain = 0
KCL2 130808Z 22009KT 09/06 A2992 RMK A01 T00900056  RH  079%=      5-min Rain = 0
KCL2 130809Z 22007KT 09/06 A2992 RMK A01 T00900056  RH  079%=      5-min Rain = 0
KCL2 130810Z 22008KT 09/06 A2992 RMK A01 T00900056  RH  079%=      5-min Rain = 0
KCL2 130811Z 22008KT 09/06 A2992 RMK A01 T00900056  RH  079%=      5-min Rain = 0
KCL2 130812Z 22008KT 09/06 A2992 RMK A01 T00900056  RH  079%=      5-min Rain = 0
KCL2 130813Z 22009KT 09/06 A2992 RMK A01 T00900056  RH  079%=      5-min Rain = 0
KCL2 130814Z 22008KT 09/06 A2992 RMK A01 T00900056  RH  079%=      5-min Rain = 0
KCL2 130815Z 22009KT 09/06 A2992 RMK A01 T00900056  RH  079%=      5-min Rain = 0
KCL2 130816Z 23009KT 09/06 A2992 RMK A01 T00900055  RH  079%=      5-min Rain = 0
KCL2 130817Z 23009KT 09/06 A2992 RMK A01 T00900055  RH  079%=      5-min Rain = 0
KCL2 130818Z 23009KT 09/06 A2992 RMK A01 T00900055  RH  079%=      5-min Rain = 0
KCL2 130819Z 23010KT 09/06 A2992 RMK A01 T00900056  RH  079%=      5-min Rain = 0
KCL2 130820Z 22010KT 09/06 A2992 RMK A01 T00900055  RH  079%=      5-min Rain = 0
KCL2 130821Z 22010KT 09/06 A2992 RMK A01 T00900056  RH  079%=      5-min Rain = 0
KCL2 130822Z 22010KT 09/06 A2992 RMK A01 T00900056  RH  079%=      5-min Rain = 0
KCL2 130823Z 23010KT 09/06 A2992 RMK A01 T00900056  RH  079%=      5-min Rain = 0
KCL2 130824Z 23011KT 09/06 A2992 RMK A01 T00900056  RH  079%=      5-min Rain = 0
KCL2 130825Z 23009KT 09/06 A2992 RMK A01 T00910056  RH  079%=      5-min Rain = 0
KCL2 130826Z 23009KT 09/06 A2992 RMK A01 T00900055  RH  079%=      5-min Rain = 0
KCL2 130827Z 23009KT 09/06 A2992 RMK A01 T00890055  RH  079%=      5-min Rain = 0
KCL2 130828Z 23010KT 09/06 A2992 RMK A01 T00880055  RH  080%=      5-min Rain = 0
KCL2 130829Z 23009KT 09/06 A2992 RMK A01 T00880055  RH  080%=      5-min Rain = 0
KCL2 130830Z 23010KT 09/06 A2992 RMK A01 T00880055  RH  080%=      5-min Rain = 0
KCL2 130831Z 23010KT 09/06 A2992 RMK A01 T00880055  RH  080%=      5-min Rain = 0
KCL2 130832Z 23009KT 09/06 A2992 RMK A01 T00880055  RH  080%=      5-min Rain = 0
KCL2 130833Z 23009KT 09/06 A2992 RMK A01 T00880055  RH  080%=      5-min Rain = 0
KCL2 130834Z 22009KT 09/05 A2992 RMK A01 T00870054  RH  080%=      5-min Rain = 0
KCL2 130835Z 23010KT 09/06 A2992 RMK A01 T00870055  RH  080%=      5-min Rain = 0
KCL2 130836Z 23010KT 09/06 A2992 RMK A01 T00870055  RH  080%=      5-min Rain = 0
KCL2 130837Z 23010KT 09/06 A2992 RMK A01 T00880055  RH  080%=      5-min Rain = 0
KCL2 130838Z 23009KT 09/06 A2992 RMK A01 T00880055  RH  080%=      5-min Rain = 0
KCL2 130839Z 23009KT 09/06 A2992 RMK A01 T00880055  RH  080%=      5-min Rain = 0
KCL2 130840Z 23009KT 09/06 A2992 RMK A01 T00880055  RH  080%=      5-min Rain = 0
KCL2 130841Z 23009KT 09/05 A2992 RMK A01 T00870054  RH  080%=      5-min Rain = 0
KCL2 130842Z 23009KT 09/05 A2992 RMK A01 T00870054  RH  080%=      5-min Rain = 0
KCL2 130843Z 23009KT 09/05 A2992 RMK A01 T00870054  RH  080%=      5-min Rain = 0
KCL2 130844Z 23009KT 09/06 A2992 RMK A01 T00880055  RH  080%=      5-min Rain = 0
KCL2 130845Z 23010KT 09/05 A2992 RMK A01 T00870054  RH  080%=      5-min Rain = 0
KCL2 130846Z 23009KT 09/05 A2992 RMK A01 T00870054  RH  080%=      5-min Rain = 0
KCL2 130847Z 23008KT 09/05 A2992 RMK A01 T00860054  RH  080%=      5-min Rain = 0
KCL2 130848Z 23008KT 09/05 A2992 RMK A01 T00850053  RH  080%=      5-min Rain = 0
KCL2 130849Z 23009KT 08/05 A2992 RMK A01 T00840053  RH  081%=      5-min Rain = 0
KCL2 130850Z 23010KT 08/05 A2992 RMK A01 T00840053  RH  081%=      5-min Rain = 0
KCL2 130851Z 23011KT 09/05 A2992 RMK A01 T00850054  RH  081%=      5-min Rain = 0
KCL2 130852Z 23009KT 09/05 A2992 RMK A01 T00850053  RH  081%=      5-min Rain = 0
KCL2 130853Z 23010KT 09/05 A2992 RMK A01 T00850053  RH  081%=      5-min Rain = 0
KCL2 130854Z 23010KT 08/05 A2992 RMK A01 T00840053  RH  081%=      5-min Rain = 0
KCL2 130855Z 22010KT 09/05 A2992 RMK A01 T00850053  RH  081%=      5-min Rain = 0
KCL2 130856Z 22010KT 09/05 A2992 RMK A01 T00850053  RH  080%=      5-min Rain = 0
KCL2 130857Z 23011KT 09/05 A2992 RMK A01 T00850053  RH  080%=      5-min Rain = 0
KCL2 130858Z 22010KT 09/05 A2992 RMK A01 T00850053  RH  080%=      5-min Rain = 0
KCL2 130859Z 22011KT 09/05 A2992 RMK A01 T00850053  RH  080%=      5-min Rain = 0
KCL2 130900Z 23011KT 09/05 A2992 RMK A01 T00850053  RH  081%=      5-min Rain = 0
KCL2 130901Z 23010KT 09/05 A2992 RMK A01 T00850053  RH  081%=      5-min Rain = 0
KCL2 130902Z 23012KT 09/05 A2992 RMK A01 T00850053  RH  081%=      5-min Rain = 0
KCL2 130903Z 23011KT 08/05 A2992 RMK A01 T00840053  RH  081%=      5-min Rain = 0
KCL2 130904Z 23011KT 08/05 A2992 RMK A01 T00840053  RH  081%=      5-min Rain = 0
KCL2 130905Z 23011KT 09/05 A2992 RMK A01 T00850053  RH  080%=      5-min Rain = 0
KCL2 130906Z 23011KT 09/05 A2992 RMK A01 T00850053  RH  080%=      5-min Rain = 0
KCL2 130907Z 23011KT 09/05 A2992 RMK A01 T00850053  RH  080%=      5-min Rain = 0
KCL2 130908Z 22012KT 09/05 A2992 RMK A01 T00850053  RH  080%=      5-min Rain = 0
KCL2 130909Z 23010KT 09/05 A2992 RMK A01 T00850053  RH  080%=      5-min Rain = 0
KCL2 130910Z 23011KT 08/05 A2992 RMK A01 T00840052  RH  080%=      5-min Rain = 0
KCL2 130911Z 23011KT 08/05 A2992 RMK A01 T00830052  RH  081%=      5-min Rain = 0
KCL2 130912Z 22012KT 08/05 A2992 RMK A01 T00830052  RH  081%=      5-min Rain = 0
KCL2 130913Z 23010KT 08/05 A2991 RMK A01 T00840052  RH  080%=      5-min Rain = 0
KCL2 130914Z 22009KT 08/05 A2991 RMK A01 T00840052  RH  080%=      5-min Rain = 0
KCL2 130915Z 22011KT 08/05 A2991 RMK A01 T00830052  RH  081%=      5-min Rain = 0
KCL2 130916Z 22011KT 08/05 A2991 RMK A01 T00830052  RH  081%=      5-min Rain = 0
KCL2 130917Z 23010KT 08/05 A2991 RMK A01 T00820052  RH  081%=      5-min Rain = 0
KCL2 130918Z 23011KT 08/05 A2992 RMK A01 T00820051  RH  081%=      5-min Rain = 0
KCL2 130919Z 23011KT 08/05 A2991 RMK A01 T00820052  RH  081%=      5-min Rain = 0
KCL2 130920Z 23010KT 08/05 A2991 RMK A01 T00820052  RH  081%=      5-min Rain = 0
KCL2 130921Z 23010KT 08/05 A2991 RMK A01 T00820051  RH  081%=      5-min Rain = 0
KCL2 130922Z 22009KT 08/05 A2991 RMK A01 T00810051  RH  081%=      5-min Rain = 0
KCL2 130923Z 23009KT 08/05 A2991 RMK A01 T00810051  RH  081%=      5-min Rain = 0
KCL2 130924Z 22009KT 08/05 A2991 RMK A01 T00800051  RH  082%=      5-min Rain = 0
KCL2 130925Z 22009KT 08/05 A2991 RMK A01 T00790050  RH  082%=      5-min Rain = 0
KCL2 130926Z 22009KT 08/05 A2991 RMK A01 T00790050  RH  082%=      5-min Rain = 0
KCL2 130927Z 23009KT 08/05 A2991 RMK A01 T00790050  RH  082%=      5-min Rain = 0
KCL2 130928Z 22009KT 08/05 A2991 RMK A01 T00790051  RH  082%=      5-min Rain = 0
KCL2 130929Z 22008KT 08/05 A2991 RMK A01 T00790050  RH  082%=      5-min Rain = 0
KCL2 130930Z 22009KT 08/05 A2991 RMK A01 T00790050  RH  082%=      5-min Rain = 0
KCL2 130931Z 23008KT 08/05 A2992 RMK A01 T00790050  RH  082%=      5-min Rain = 0
KCL2 130932Z 23009KT 08/05 A2991 RMK A01 T00780049  RH  082%=      5-min Rain = 0
KCL2 130933Z 23008KT 08/05 A2991 RMK A01 T00780050  RH  082%=      5-min Rain = 0
KCL2 130934Z 23009KT 08/05 A2991 RMK A01 T00780050  RH  082%=      5-min Rain = 0
KCL2 130935Z 22009KT 08/05 A2991 RMK A01 T00790050  RH  082%=      5-min Rain = 0
KCL2 130936Z 22009KT 08/05 A2991 RMK A01 T00780050  RH  082%=      5-min Rain = 0
KCL2 130937Z 22008KT 08/05 A2991 RMK A01 T00780049  RH  082%=      5-min Rain = 0
KCL2 130938Z 22008KT 08/05 A2991 RMK A01 T00780049  RH  082%=      5-min Rain = 0
KCL2 130939Z 22008KT 08/05 A2991 RMK A01 T00780049  RH  082%=      5-min Rain = 0
KCL2 130940Z 22009KT 08/05 A2991 RMK A01 T00770049  RH  082%=      5-min Rain = 0
KCL2 130941Z 22009KT 08/05 A2991 RMK A01 T00770049  RH  082%=      5-min Rain = 0
KCL2 130942Z 22008KT 08/05 A2991 RMK A01 T00770049  RH  082%=      5-min Rain = 0
KCL2 130943Z 22008KT 08/05 A2991 RMK A01 T00770049  RH  082%=      5-min Rain = 0
KCL2 130944Z 22009KT 08/05 A2991 RMK A01 T00770049  RH  082%=      5-min Rain = 0
KCL2 130945Z 22009KT 08/05 A2991 RMK A01 T00780049  RH  082%=      5-min Rain = 0
KCL2 130946Z 22009KT 08/05 A2991 RMK A01 T00780049  RH  082%=      5-min Rain = 0
KCL2 130947Z 21008KT 08/05 A2991 RMK A01 T00790049  RH  082%=      5-min Rain = 0
KCL2 130948Z 22008KT 08/05 A2991 RMK A01 T00790049  RH  081%=      5-min Rain = 0
KCL2 130949Z 22009KT 08/05 A2991 RMK A01 T00790049  RH  081%=      5-min Rain = 0
KCL2 130950Z 21009KT 08/05 A2991 RMK A01 T00790049  RH  081%=      5-min Rain = 0
KCL2 130951Z 22009KT 08/05 A2991 RMK A01 T00790049  RH  081%=      5-min Rain = 0
KCL2 130952Z 22009KT 08/05 A2991 RMK A01 T00790049  RH  081%=      5-min Rain = 0
KCL2 130953Z 22009KT 08/05 A2991 RMK A01 T00800049  RH  081%=      5-min Rain = 0
KCL2 130954Z 22009KT 08/05 A2991 RMK A01 T00800049  RH  081%=      5-min Rain = 0
KCL2 130955Z 22008KT 08/05 A2991 RMK A01 T00800049  RH  081%=      5-min Rain = 0
KCL2 130956Z 22008KT 08/05 A2991 RMK A01 T00790048  RH  081%=      5-min Rain = 0
KCL2 130957Z 22009KT 08/05 A2991 RMK A01 T00780048  RH  081%=      5-min Rain = 0
KCL2 130958Z 22008KT 08/05 A299 RMK A01 T00780048  RH  081%=      5-min Rain = 0
KCL2 130959Z 22009KT 08/05 A299 RMK A01 T00770048  RH  082%=      5-min Rain = 0
KCL2 131000Z 22009KT 08/05 A299 RMK A01 T00770048  RH  082%=      5-min Rain = 0
KCL2 131001Z 22009KT 08/05 A299 RMK A01 T00770048  RH  082%=      5-min Rain = 0
KCL2 131002Z 22010KT 08/05 A299 RMK A01 T00770048  RH  082%=      5-min Rain = 0
KCL2 131003Z 22011KT 08/05 A299 RMK A01 T00780049  RH  082%=      5-min Rain = 0
KCL2 131004Z 22010KT 08/05 A299 RMK A01 T00790049  RH  081%=      5-min Rain = 0
KCL2 131005Z 22011KT 08/05 A299 RMK A01 T00800049  RH  081%=      5-min Rain = 0
KCL2 131006Z 22011KT 08/05 A299 RMK A01 T00800049  RH  081%=      5-min Rain = 0
KCL2 131007Z 22010KT 08/05 A299 RMK A01 T00800049  RH  081%=      5-min Rain = 0
KCL2 131008Z 22009KT 08/05 A299 RMK A01 T00800049  RH  081%=      5-min Rain = 0
KCL2 131009Z 22010KT 08/05 A2989 RMK A01 T00800049  RH  081%=      5-min Rain = 0
KCL2 131010Z 22009KT 08/05 A2989 RMK A01 T00790049  RH  081%=      5-min Rain = 0
KCL2 131011Z 22009KT 08/05 A2989 RMK A01 T00790049  RH  081%=      5-min Rain = 0
KCL2 131012Z 22009KT 08/05 A2989 RMK A01 T00790049  RH  081%=      5-min Rain = 0
KCL2 131013Z 22010KT 08/05 A299 RMK A01 T00790049  RH  081%=      5-min Rain = 0
KCL2 131014Z 22009KT 08/05 A299 RMK A01 T00790049  RH  081%=      5-min Rain = 0
KCL2 131015Z 23009KT 08/05 A299 RMK A01 T00800049  RH  081%=      5-min Rain = 0
KCL2 131016Z 22009KT 08/05 A299 RMK A01 T00790048  RH  081%=      5-min Rain = 0
KCL2 131017Z 22009KT 08/05 A299 RMK A01 T00780048  RH  081%=      5-min Rain = 0
KCL2 131018Z 22008KT 08/05 A299 RMK A01 T00780048  RH  081%=      5-min Rain = 0
KCL2 131019Z 22009KT 08/05 A2989 RMK A01 T00770048  RH  082%=      5-min Rain = 0
KCL2 131020Z 22008KT 08/05 A2989 RMK A01 T00770048  RH  082%=      5-min Rain = 0
KCL2 131021Z 22009KT 08/05 A299 RMK A01 T00770048  RH  082%=      5-min Rain = 0
KCL2 131022Z 23009KT 08/05 A299 RMK A01 T00760048  RH  082%=      5-min Rain = 0
KCL2 131023Z 23009KT 08/05 A299 RMK A01 T00760048  RH  082%=      5-min Rain = 0
KCL2 131024Z 22009KT 08/05 A299 RMK A01 T00760048  RH  082%=      5-min Rain = 0
KCL2 131025Z 22009KT 08/05 A299 RMK A01 T00760048  RH  082%=      5-min Rain = 0
KCL2 131026Z 22008KT 08/05 A299 RMK A01 T00760047  RH  082%=      5-min Rain = 0
KCL2 131027Z 22008KT 08/05 A299 RMK A01 T00760047  RH  082%=      5-min Rain = 0
KCL2 131028Z 22008KT 08/05 A299 RMK A01 T00750047  RH  082%=      5-min Rain = 0
KCL2 131029Z 22007KT 08/05 A2989 RMK A01 T00750047  RH  082%=      5-min Rain = 0
KCL2 131030Z 22007KT 07/05 A299 RMK A01 T00740046  RH  082%=      5-min Rain = 0
KCL2 131031Z 22008KT 07/05 A299 RMK A01 T00740046  RH  083%=      5-min Rain = 0
KCL2 131032Z 23007KT 07/05 A299 RMK A01 T00740046  RH  083%=      5-min Rain = 0
KCL2 131033Z 22008KT 07/05 A299 RMK A01 T00740046  RH  083%=      5-min Rain = 0
KCL2 131034Z 21007KT 07/05 A299 RMK A01 T00740047  RH  083%=      5-min Rain = 0
KCL2 131035Z 22008KT 08/05 A2989 RMK A01 T00750046  RH  082%=      5-min Rain = 0
KCL2 131036Z 22008KT 07/05 A2989 RMK A01 T00740046  RH  082%=      5-min Rain = 0
KCL2 131037Z 22008KT 07/05 A2989 RMK A01 T00740046  RH  082%=      5-min Rain = 0
KCL2 131038Z 22008KT 07/05 A2989 RMK A01 T00730046  RH  083%=      5-min Rain = 0
KCL2 131039Z 22008KT 07/05 A2989 RMK A01 T00730046  RH  083%=      5-min Rain = 0
KCL2 131040Z 22008KT 07/05 A2989 RMK A01 T00730046  RH  083%=      5-min Rain = 0
KCL2 131041Z 22008KT 07/05 A2989 RMK A01 T00720045  RH  083%=      5-min Rain = 0
KCL2 131042Z 22008KT 07/05 A2989 RMK A01 T00720046  RH  083%=      5-min Rain = 0
KCL2 131043Z 22007KT 07/05 A2989 RMK A01 T00720046  RH  083%=      5-min Rain = 0
KCL2 131044Z 22007KT 07/05 A2989 RMK A01 T00720046  RH  084%=      5-min Rain = 0
KCL2 131045Z 22006KT 07/05 A2989 RMK A01 T00720046  RH  084%=      5-min Rain = 0
KCL2 131046Z 22007KT 07/05 A2989 RMK A01 T00720045  RH  083%=      5-min Rain = 0
KCL2 131047Z 22007KT 07/05 A2989 RMK A01 T00710045  RH  084%=      5-min Rain = 0
KCL2 131048Z 22007KT 07/05 A2989 RMK A01 T00710046  RH  084%=      5-min Rain = 0
KCL2 131049Z 22007KT 07/05 A2989 RMK A01 T00710045  RH  084%=      5-min Rain = 0
KCL2 131050Z 22007KT 07/05 A2989 RMK A01 T00710046  RH  084%=      5-min Rain = 0
KCL2 131051Z 22006KT 07/05 A2989 RMK A01 T00720045  RH  083%=      5-min Rain = 0
KCL2 131052Z 22007KT 07/05 A2989 RMK A01 T00720045  RH  083%=      5-min Rain = 0
KCL2 131053Z 22007KT 07/05 A2989 RMK A01 T00710045  RH  083%=      5-min Rain = 0
KCL2 131054Z 22006KT 07/05 A2989 RMK A01 T00710045  RH  083%=      5-min Rain = 0
KCL2 131055Z 22006KT 07/05 A2989 RMK A01 T00710045  RH  084%=      5-min Rain = 0
KCL2 131056Z 22005KT 07/05 A2989 RMK A01 T00710045  RH  084%=      5-min Rain = 0
KCL2 131057Z 23005KT 07/05 A2989 RMK A01 T00710045  RH  084%=      5-min Rain = 0
KCL2 131058Z 23006KT 07/05 A2989 RMK A01 T00710045  RH  084%=      5-min Rain = 0
KCL2 131059Z 23005KT 07/05 A2989 RMK A01 T00710045  RH  084%=      5-min Rain = 0
KCL2 131100Z 23004KT 07/04 A2989 RMK A01 T00710044  RH  083%=      5-min Rain = 0
KCL2 131101Z 23005KT 07/04 A2989 RMK A01 T00700044  RH  084%=      5-min Rain = 0
KCL2 131102Z 23005KT 07/04 A2989 RMK A01 T00690043  RH  084%=      5-min Rain = 0
KCL2 131103Z 23006KT 07/04 A2989 RMK A01 T00680043  RH  084%=      5-min Rain = 0
KCL2 131104Z 23004KT 07/04 A2989 RMK A01 T00690044  RH  084%=      5-min Rain = 0
KCL2 131105Z 23004KT 07/04 A2989 RMK A01 T00690043  RH  083%=      5-min Rain = 0
KCL2 131106Z 24005KT 07/04 A2989 RMK A01 T00680042  RH  083%=      5-min Rain = 0
KCL2 131107Z 24005KT 07/04 A2989 RMK A01 T00670042  RH  084%=      5-min Rain = 0
KCL2 131108Z 24004KT 07/04 A2989 RMK A01 T00670042  RH  084%=      5-min Rain = 0
KCL2 131109Z 24005KT 07/04 A299 RMK A01 T00660042  RH  084%=      5-min Rain = 0
KCL2 131110Z 24005KT 07/04 A299 RMK A01 T00660042  RH  084%=      5-min Rain = 0
KCL2 131111Z 24005KT 07/04 A299 RMK A01 T00660042  RH  084%=      5-min Rain = 0
KCL2 131112Z 25006KT 07/04 A299 RMK A01 T00660042  RH  084%=      5-min Rain = 0
KCL2 131113Z 25005KT 07/04 A299 RMK A01 T00650041  RH  084%=      5-min Rain = 0
KCL2 131114Z 25005KT 07/04 A299 RMK A01 T00650041  RH  085%=      5-min Rain = 0
KCL2 131115Z 25005KT 07/04 A299 RMK A01 T00650041  RH  085%=      5-min Rain = 0
KCL2 131116Z 25005KT 06/04 A2991 RMK A01 T00640041  RH  085%=      5-min Rain = 0
KCL2 131117Z 25005KT 06/04 A299 RMK A01 T00640041  RH  085%=      5-min Rain = 0
KCL2 131118Z 25005KT 06/04 A299 RMK A01 T00640041  RH  085%=      5-min Rain = 0
KCL2 131119Z 24005KT 06/04 A299 RMK A01 T00630040  RH  085%=      5-min Rain = 0
KCL2 131120Z 24005KT 06/04 A299 RMK A01 T00640041  RH  085%=      5-min Rain = 0
KCL2 131121Z 24005KT 06/04 A299 RMK A01 T00630040  RH  085%=      5-min Rain = 0
KCL2 131122Z 24006KT 06/04 A299 RMK A01 T00630040  RH  085%=      5-min Rain = 0
KCL2 131123Z 24005KT 06/04 A299 RMK A01 T00620040  RH  086%=      5-min Rain = 0
KCL2 131124Z 24006KT 06/04 A299 RMK A01 T00620039  RH  086%=      5-min Rain = 0
KCL2 131125Z 24006KT 06/04 A299 RMK A01 T00610039  RH  086%=      5-min Rain = 0
KCL2 131126Z 24007KT 06/04 A299 RMK A01 T00600039  RH  086%=      5-min Rain = 0
KCL2 131127Z 24006KT 06/04 A299 RMK A01 T00600039  RH  087%=      5-min Rain = 0
KCL2 131128Z 24006KT 06/04 A299 RMK A01 T00600039  RH  087%=      5-min Rain = 0
KCL2 131129Z 25005KT 06/04 A2991 RMK A01 T00590039  RH  087%=      5-min Rain = 0
KCL2 131130Z 25006KT 06/04 A2991 RMK A01 T00590039  RH  087%=      5-min Rain = 0
KCL2 131131Z 25006KT 06/04 A2991 RMK A01 T00590038  RH  087%=      5-min Rain = 0
KCL2 131132Z 25005KT 06/04 A2991 RMK A01 T00590039  RH  087%=      5-min Rain = 0
KCL2 131133Z 25006KT 06/04 A2991 RMK A01 T00590039  RH  087%=      5-min Rain = 0
KCL2 131134Z 25006KT 06/04 A2991 RMK A01 T00590039  RH  087%=      5-min Rain = 0
KCL2 131135Z 25005KT 06/04 A2991 RMK A01 T00590039  RH  087%=      5-min Rain = 0
KCL2 131136Z 26005KT 06/04 A2991 RMK A01 T00580037  RH  087%=      5-min Rain = 0
KCL2 131137Z 25006KT 06/04 A2991 RMK A01 T00570037  RH  087%=      5-min Rain = 0
KCL2 131138Z 24007KT 06/04 A299 RMK A01 T00570037  RH  087%=      5-min Rain = 0
KCL2 131139Z 24007KT 06/04 A299 RMK A01 T00570038  RH  088%=      5-min Rain = 0
KCL2 131140Z 25006KT 06/04 A299 RMK A01 T00570038  RH  088%=      5-min Rain = 0
KCL2 131141Z 26005KT 06/04 A299 RMK A01 T00560036  RH  087%=      5-min Rain = 0
KCL2 131142Z 25006KT 06/04 A299 RMK A01 T00550035  RH  087%=      5-min Rain = 0
KCL2 131143Z 24007KT 05/04 A299 RMK A01 T00540036  RH  088%=      5-min Rain = 0
KCL2 131144Z 25007KT 06/04 A299 RMK A01 T00550037  RH  089%=      5-min Rain = 0
KCL2 131145Z 25006KT 06/04 A299 RMK A01 T00550037  RH  088%=      5-min Rain = 0
KCL2 131146Z 25006KT 06/04 A299 RMK A01 T00550038  RH  088%=      5-min Rain = 0
KCL2 131147Z 25006KT 06/04 A299 RMK A01 T00550037  RH  088%=      5-min Rain = 0
KCL2 131148Z 25006KT 06/04 A299 RMK A01 T00550037  RH  088%=      5-min Rain = 0
KCL2 131149Z 26007KT 06/04 A299 RMK A01 T00550037  RH  088%=      5-min Rain = 0
KCL2 131150Z 26007KT 05/04 A299 RMK A01 T00540036  RH  088%=      5-min Rain = 0
KCL2 131151Z 25007KT 05/04 A299 RMK A01 T00540036  RH  088%=      5-min Rain = 0
KCL2 131152Z 25008KT 05/04 A299 RMK A01 T00530036  RH  089%=      5-min Rain = 0
KCL2 131153Z 25007KT 05/04 A299 RMK A01 T00540037  RH  089%=      5-min Rain = 0
KCL2 131154Z 26006KT 05/04 A299 RMK A01 T00530037  RH  089%=      5-min Rain = 0
KCL2 131155Z 26006KT 05/04 A2989 RMK A01 T00530035  RH  089%=      5-min Rain = 0
KCL2 131156Z 25007KT 05/04 A2989 RMK A01 T00520036  RH  089%=      5-min Rain = 0
KCL2 131157Z 25006KT 05/04 A299 RMK A01 T00520036  RH  089%=      5-min Rain = 0
KCL2 131158Z 26006KT 05/04 A299 RMK A01 T00520036  RH  089%=      5-min Rain = 0
KCL2 131159Z 27005KT 05/04 A299 RMK A01 T00520036  RH  089%=      5-min Rain = 0
KCL2 131200Z 26005KT 05/04 A299 RMK A01 T00510035  RH  089%=      5-min Rain = 0
KCL2 131201Z 26006KT 05/04 A299 RMK A01 T00510036  RH  090%=      5-min Rain = 0
KCL2 131202Z 26005KT 05/04 A299 RMK A01 T00510036  RH  090%=      5-min Rain = 0
KCL2 131203Z 25005KT 05/04 A2989 RMK A01 T00520037  RH  090%=      5-min Rain = 0
KCL2 131204Z 25005KT 05/04 A2989 RMK A01 T00530037  RH  090%=      5-min Rain = 0
KCL2 131205Z 25005KT 05/04 A2989 RMK A01 T00530037  RH  090%=      5-min Rain = 0
KCL2 131206Z 25005KT 05/04 A2989 RMK A01 T00530037  RH  089%=      5-min Rain = 0
KCL2 131207Z 25005KT 05/04 A2989 RMK A01 T00530036  RH  089%=      5-min Rain = 0
KCL2 131208Z 25006KT 05/04 A2989 RMK A01 T00530036  RH  089%=      5-min Rain = 0
KCL2 131209Z 25006KT 05/04 A2989 RMK A01 T00530036  RH  089%=      5-min Rain = 0
KCL2 131210Z 25006KT 05/04 A2989 RMK A01 T00530036  RH  089%=      5-min Rain = 0
KCL2 131211Z 25006KT 05/04 A2989 RMK A01 T00530036  RH  089%=      5-min Rain = 0
KCL2 131212Z 25006KT 05/04 A2989 RMK A01 T00530036  RH  089%=      5-min Rain = 0
KCL2 131213Z 25006KT 05/04 A2989 RMK A01 T00520035  RH  089%=      5-min Rain = 0
KCL2 131214Z 25006KT 05/04 A2989 RMK A01 T00530035  RH  089%=      5-min Rain = 0
KCL2 131215Z 25007KT 05/04 A2989 RMK A01 T00520035  RH  089%=      5-min Rain = 0
KCL2 131216Z 25007KT 05/04 A2989 RMK A01 T00530036  RH  089%=      5-min Rain = 0
KCL2 131217Z 25007KT 05/04 A2989 RMK A01 T00520035  RH  089%=      5-min Rain = 0
KCL2 131218Z 26006KT 05/04 A2989 RMK A01 T00520035  RH  089%=      5-min Rain = 0
KCL2 131219Z 26006KT 05/04 A2989 RMK A01 T00520035  RH  089%=      5-min Rain = 0
KCL2 131220Z 26007KT 05/04 A299 RMK A01 T00520035  RH  089%=      5-min Rain = 0
KCL2 131221Z 26007KT 05/04 A2989 RMK A01 T00520035  RH  089%=      5-min Rain = 0
KCL2 131222Z 26007KT 05/04 A2989 RMK A01 T00520035  RH  089%=      5-min Rain = 0
KCL2 131223Z 26007KT 05/04 A2989 RMK A01 T00520035  RH  089%=      5-min Rain = 0
KCL2 131224Z 25007KT 05/04 A2989 RMK A01 T00520035  RH  089%=      5-min Rain = 0
KCL2 131225Z 25007KT 05/04 A2989 RMK A01 T00520035  RH  089%=      5-min Rain = 0
KCL2 131226Z 25007KT 05/03 A2989 RMK A01 T00520034  RH  088%=      5-min Rain = 0
KCL2 131227Z 25007KT 05/03 A2989 RMK A01 T00520034  RH  088%=      5-min Rain = 0
KCL2 131228Z 25008KT 05/03 A2989 RMK A01 T00510034  RH  088%=      5-min Rain = 0
KCL2 131229Z 25008KT 05/03 A2989 RMK A01 T00510034  RH  089%=      5-min Rain = 0
KCL2 131230Z 26008KT 05/03 A2989 RMK A01 T00520034  RH  089%=      5-min Rain = 0
KCL2 131231Z 25008KT 05/04 A2989 RMK A01 T00520035  RH  088%=      5-min Rain = 0
KCL2 131232Z 26008KT 05/04 A2989 RMK A01 T00530035  RH  088%=      5-min Rain = 0
KCL2 131233Z 26008KT 05/04 A2989 RMK A01 T00530035  RH  088%=      5-min Rain = 0
KCL2 131234Z 26008KT 05/04 A2989 RMK A01 T00540035  RH  088%=      5-min Rain = 0
KCL2 131235Z 26008KT 05/04 A2989 RMK A01 T00540035  RH  088%=      5-min Rain = 0
KCL2 131236Z 26008KT 05/04 A2989 RMK A01 T00530035  RH  088%=      5-min Rain = 0
KCL2 131237Z 26008KT 05/04 A2989 RMK A01 T00530035  RH  088%=      5-min Rain = 0
KCL2 131238Z 26009KT 05/03 A2989 RMK A01 T00530034  RH  088%=      5-min Rain = 0
KCL2 131239Z 26008KT 05/04 A2989 RMK A01 T00530035  RH  088%=      5-min Rain = 0
KCL2 131240Z 25009KT 05/04 A2989 RMK A01 T00520035  RH  088%=      5-min Rain = 0
KCL2 131241Z 25009KT 05/04 A2989 RMK A01 T00530035  RH  088%=      5-min Rain = 0
KCL2 131242Z 26008KT 05/04 A2989 RMK A01 T00530035  RH  088%=      5-min Rain = 0
KCL2 131243Z 26008KT 05/04 A2989 RMK A01 T00530035  RH  088%=      5-min Rain = 0
KCL2 131244Z 26008KT 05/04 A299 RMK A01 T00530035  RH  088%=      5-min Rain = 0
KCL2 131245Z 26008KT 05/03 A299 RMK A01 T00530034  RH  088%=      5-min Rain = 0
KCL2 131246Z 27008KT 05/04 A299 RMK A01 T00530035  RH  088%=      5-min Rain = 0
KCL2 131247Z 27008KT 05/04 A299 RMK A01 T00540035  RH  088%=      5-min Rain = 0
KCL2 131248Z 27007KT 05/03 A299 RMK A01 T00530034  RH  088%=      5-min Rain = 0
KCL2 131249Z 27007KT 05/03 A2991 RMK A01 T00520033  RH  087%=      5-min Rain = 0
KCL2 131250Z 27008KT 05/03 A2991 RMK A01 T00500031  RH  087%=      5-min Rain = 0
KCL2 131251Z 27008KT 05/03 A2991 RMK A01 T00490030  RH  088%=      5-min Rain = 0
KCL2 131252Z 27008KT 05/03 A299 RMK A01 T00480031  RH  089%=      5-min Rain = 0
KCL2 131253Z 27008KT 05/03 A2991 RMK A01 T00470031  RH  089%=      5-min Rain = 0
KCL2 131254Z 27008KT 05/03 A2991 RMK A01 T00470031  RH  089%=      5-min Rain = 0
KCL2 131255Z 27008KT 05/03 A2991 RMK A01 T00460030  RH  090%=      5-min Rain = 0
KCL2 131256Z 27008KT 05/03 A2991 RMK A01 T00460031  RH  090%=      5-min Rain = 0
KCL2 131257Z 27008KT 05/03 A2991 RMK A01 T00460031  RH  090%=      5-min Rain = 0
KCL2 131258Z 27007KT 05/03 A2991 RMK A01 T00460031  RH  090%=      5-min Rain = 0
KCL2 131259Z 27007KT 05/03 A2991 RMK A01 T00460031  RH  090%=      5-min Rain = 0
KCL2 131300Z 27007KT 05/03 A2991 RMK A01 T00460031  RH  090%=      5-min Rain = 0
KCL2 131301Z 27007KT 05/03 A2991 RMK A01 T00460031  RH  090%=      5-min Rain = 0
KCL2 131302Z 27006KT 05/03 A2991 RMK A01 T00450030  RH  090%=      5-min Rain = 0
KCL2 131303Z 27006KT 05/03 A299 RMK A01 T00450030  RH  090%=      5-min Rain = 0
KCL2 131304Z 27006KT 05/03 A299 RMK A01 T00450030  RH  090%=      5-min Rain = 0
KCL2 131305Z 27006KT 05/03 A299 RMK A01 T00450030  RH  090%=      5-min Rain = 0
KCL2 131306Z 27006KT 05/03 A299 RMK A01 T00450030  RH  090%=      5-min Rain = 0
KCL2 131307Z 27006KT 04/03 A299 RMK A01 T00440029  RH  090%=      5-min Rain = 0
KCL2 131308Z 27006KT 04/03 A299 RMK A01 T00440029  RH  090%=      5-min Rain = 0
KCL2 131309Z 27006KT 04/03 A299 RMK A01 T00440029  RH  090%=      5-min Rain = 0
KCL2 131310Z 28006KT 04/03 A299 RMK A01 T00440029  RH  090%=      5-min Rain = 0
KCL2 131311Z 27004KT 04/03 A299 RMK A01 T00430028  RH  090%=      5-min Rain = 0
KCL2 131312Z 27004KT 04/03 A299 RMK A01 T00420028  RH  090%=      5-min Rain = 0
KCL2 131313Z 26004KT 04/03 A299 RMK A01 T00420028  RH  091%=      5-min Rain = 0
KCL2 131314Z 27004KT 04/03 A299 RMK A01 T00420028  RH  091%=      5-min Rain = 0
KCL2 131315Z 26004KT 04/03 A299 RMK A01 T00420028  RH  091%=      5-min Rain = 0
KCL2 131316Z 26005KT 04/03 A299 RMK A01 T00410027  RH  091%=      5-min Rain = 0
KCL2 131317Z 27007KT 04/03 A299 RMK A01 T00410027  RH  091%=      5-min Rain = 0
KCL2 131318Z 27007KT 04/03 A2991 RMK A01 T00410027  RH  091%=      5-min Rain = 0
KCL2 131319Z 27007KT 04/03 A2991 RMK A01 T00410028  RH  091%=      5-min Rain = 0
KCL2 131320Z 27008KT 04/03 A2991 RMK A01 T00410028  RH  091%=      5-min Rain = 0
KCL2 131321Z 27008KT 04/03 A2991 RMK A01 T00400028  RH  091%=      5-min Rain = 0
KCL2 131322Z 27008KT 04/03 A2991 RMK A01 T00410028  RH  092%=      5-min Rain = 0
KCL2 131323Z 27008KT 04/03 A2991 RMK A01 T00410029  RH  092%=      5-min Rain = 0
KCL2 131324Z 27007KT 04/03 A2991 RMK A01 T00420030  RH  092%=      5-min Rain = 0
KCL2 131325Z 27007KT 04/03 A299 RMK A01 T00420030  RH  092%=      5-min Rain = 0
KCL2 131326Z 27006KT 04/03 A299 RMK A01 T00420030  RH  092%=      5-min Rain = 0
KCL2 131327Z 27007KT 04/03 A299 RMK A01 T00430030  RH  092%=      5-min Rain = 0
KCL2 131328Z 27006KT 04/03 A299 RMK A01 T00420030  RH  092%=      5-min Rain = 0
KCL2 131329Z 28007KT 04/03 A299 RMK A01 T00420030  RH  091%=      5-min Rain = 0
KCL2 131330Z 28007KT 04/03 A299 RMK A01 T00420029  RH  091%=      5-min Rain = 0
KCL2 131331Z 28007KT 04/03 A299 RMK A01 T00420029  RH  091%=      5-min Rain = 0
KCL2 131332Z 28007KT 04/03 A299 RMK A01 T00430030  RH  091%=      5-min Rain = 0
KCL2 131333Z 28007KT 04/03 A299 RMK A01 T00420029  RH  091%=      5-min Rain = 0
KCL2 131334Z 28007KT 04/03 A299 RMK A01 T00430029  RH  091%=      5-min Rain = 0
KCL2 131335Z 28007KT 04/03 A2991 RMK A01 T00430030  RH  091%=      5-min Rain = 0
KCL2 131336Z 28008KT 04/03 A2991 RMK A01 T00440030  RH  091%=      5-min Rain = 0
KCL2 131337Z 29007KT 05/03 A2991 RMK A01 T00450031  RH  091%=      5-min Rain = 0
KCL2 131338Z 29007KT 05/03 A2991 RMK A01 T00460032  RH  090%=      5-min Rain = 0
KCL2 131339Z 29007KT 05/03 A2991 RMK A01 T00470032  RH  090%=      5-min Rain = 0
KCL2 131340Z 30007KT 05/03 A2991 RMK A01 T00470032  RH  090%=      5-min Rain = 0
KCL2 131341Z 30007KT 05/03 A2991 RMK A01 T00480032  RH  090%=      5-min Rain = 0
KCL2 131342Z 30007KT 05/03 A2991 RMK A01 T00480032  RH  090%=      5-min Rain = 0
KCL2 131343Z 30007KT 05/03 A2991 RMK A01 T00480032  RH  089%=      5-min Rain = 0
KCL2 131344Z 29007KT 05/03 A2991 RMK A01 T00480032  RH  089%=      5-min Rain = 0
KCL2 131345Z 29008KT 05/03 A2991 RMK A01 T00490032  RH  089%=      5-min Rain = 0
KCL2 131346Z 29008KT 05/03 A2991 RMK A01 T00490032  RH  089%=      5-min Rain = 0
KCL2 131347Z 29008KT 05/03 A2991 RMK A01 T00490032  RH  089%=      5-min Rain = 0
KCL2 131348Z 29008KT 05/03 A2991 RMK A01 T00500033  RH  089%=      5-min Rain = 0
KCL2 131349Z 29009KT 05/03 A2991 RMK A01 T00510033  RH  088%=      5-min Rain = 0
KCL2 131350Z 29008KT 05/03 A2991 RMK A01 T00510033  RH  088%=      5-min Rain = 0
KCL2 131351Z 29008KT 05/03 A2992 RMK A01 T00510032  RH  087%=      5-min Rain = 0
KCL2 131352Z 29008KT 05/03 A2992 RMK A01 T00520033  RH  087%=      5-min Rain = 0
KCL2 131353Z 29008KT 05/03 A2992 RMK A01 T00520032  RH  087%=      5-min Rain = 0
KCL2 131354Z 30008KT 05/03 A2992 RMK A01 T00530032  RH  087%=      5-min Rain = 0
KCL2 131355Z 29009KT 05/03 A2991 RMK A01 T00530032  RH  086%=      5-min Rain = 0
KCL2 131356Z 29009KT 05/03 A2991 RMK A01 T00540032  RH  085%=      5-min Rain = 0
KCL2 131357Z 29008KT 06/03 A2991 RMK A01 T00550032  RH  085%=      5-min Rain = 0
KCL2 131358Z 30008KT 06/03 A2991 RMK A01 T00560031  RH  085%=      5-min Rain = 0
KCL2 131359Z 30008KT 06/03 A2992 RMK A01 T00560031  RH  084%=      5-min Rain = 0
KCL2 131400Z 30008KT 06/03 A2992 RMK A01 T00560031  RH  084%=      5-min Rain = 0
KCL2 131401Z 30008KT 06/03 A2992 RMK A01 T00560031  RH  084%=      5-min Rain = 0
KCL2 131402Z 30008KT 06/03 A2992 RMK A01 T00570031  RH  084%=      5-min Rain = 0
KCL2 131403Z 30008KT 06/03 A2992 RMK A01 T00570031  RH  084%=      5-min Rain = 0
KCL2 131404Z 30008KT 06/03 A2992 RMK A01 T00570031  RH  083%=      5-min Rain = 0
KCL2 131405Z 30009KT 06/03 A2992 RMK A01 T00570031  RH  083%=      5-min Rain = 0
KCL2 131406Z 30008KT 06/03 A2992 RMK A01 T00570031  RH  083%=      5-min Rain = 0
KCL2 131407Z 30008KT 06/03 A2992 RMK A01 T00570031  RH  083%=      5-min Rain = 0
KCL2 131408Z 30008KT 06/03 A2991 RMK A01 T00570031  RH  083%=      5-min Rain = 0
KCL2 131409Z 29008KT 06/03 A2991 RMK A01 T00570030  RH  083%=      5-min Rain = 0
KCL2 131410Z 30008KT 06/03 A2991 RMK A01 T00570030  RH  082%=      5-min Rain = 0
KCL2 131411Z 30008KT 06/03 A2991 RMK A01 T00570029  RH  082%=      5-min Rain = 0
KCL2 131412Z 30008KT 06/03 A2991 RMK A01 T00570029  RH  082%=      5-min Rain = 0
KCL2 131413Z 30008KT 06/03 A2991 RMK A01 T00570030  RH  082%=      5-min Rain = 0
KCL2 131414Z 30009KT 06/03 A2992 RMK A01 T00570030  RH  082%=      5-min Rain = 0
KCL2 131415Z 30008KT 06/03 A2992 RMK A01 T00570029  RH  082%=      5-min Rain = 0
KCL2 131416Z 30008KT 06/03 A2992 RMK A01 T00570029  RH  082%=      5-min Rain = 0
KCL2 131417Z 29008KT 06/03 A2992 RMK A01 T00570029  RH  082%=      5-min Rain = 0
KCL2 131418Z 30009KT 06/03 A2992 RMK A01 T00570029  RH  082%=      5-min Rain = 0
KCL2 131419Z 29008KT 06/03 A2992 RMK A01 T00570028  RH  082%=      5-min Rain = 0
KCL2 131420Z 30009KT 06/03 A2992 RMK A01 T00570028  RH  082%=      5-min Rain = 0
KCL2 131421Z 30010KT 06/03 A2992 RMK A01 T00560026  RH  081%=      5-min Rain = 0
KCL2 131422Z 30010KT 06/03 A2992 RMK A01 T00560027  RH  081%=      5-min Rain = 0
KCL2 131423Z 30009KT 06/03 A2993 RMK A01 T00560026  RH  081%=      5-min Rain = 0
KCL2 131424Z 30009KT 06/03 A2993 RMK A01 T00550026  RH  082%=      5-min Rain = 0
KCL2 131425Z 30009KT 06/03 A2993 RMK A01 T00550026  RH  082%=      5-min Rain = 0
KCL2 131426Z 30009KT 06/03 A2993 RMK A01 T00550026  RH  081%=      5-min Rain = 0
KCL2 131427Z 30008KT 06/03 A2993 RMK A01 T00550026  RH  082%=      5-min Rain = 0
KCL2 131428Z 31009KT 05/03 A2993 RMK A01 T00540025  RH  082%=      5-min Rain = 0
KCL2 131429Z 30008KT 05/03 A2992 RMK A01 T00540025  RH  082%=      5-min Rain = 0
KCL2 131430Z 31007KT 05/03 A2992 RMK A01 T00540025  RH  082%=      5-min Rain = 0
KCL2 131431Z 30009KT 05/03 A2992 RMK A01 T00530025  RH  082%=      5-min Rain = 0
KCL2 131432Z 30009KT 05/02 A2992 RMK A01 T00530024  RH  082%=      5-min Rain = 0
KCL2 131433Z 30008KT 05/02 A2992 RMK A01 T00530024  RH  082%=      5-min Rain = 0
KCL2 131434Z 31008KT 05/03 A2992 RMK A01 T00530025  RH  082%=      5-min Rain = 0
KCL2 131435Z 31009KT 05/03 A2992 RMK A01 T00530025  RH  082%=      5-min Rain = 0
KCL2 131436Z 31008KT 05/03 A2993 RMK A01 T00530025  RH  083%=      5-min Rain = 0
KCL2 131437Z 30009KT 05/03 A2993 RMK A01 T00530025  RH  082%=      5-min Rain = 0
KCL2 131438Z 31007KT 05/03 A2993 RMK A01 T00540026  RH  082%=      5-min Rain = 0
KCL2 131439Z 30008KT 06/03 A2993 RMK A01 T00550027  RH  082%=      5-min Rain = 0
KCL2 131440Z 31007KT 06/03 A2993 RMK A01 T00550027  RH  082%=      5-min Rain = 0
KCL2 131441Z 30009KT 06/03 A2993 RMK A01 T00550026  RH  082%=      5-min Rain = 0
KCL2 131442Z 31008KT 05/03 A2993 RMK A01 T00540025  RH  082%=      5-min Rain = 0
KCL2 131443Z 31008KT 05/03 A2993 RMK A01 T00540025  RH  082%=      5-min Rain = 0
KCL2 131444Z 31008KT 05/03 A2993 RMK A01 T00540026  RH  082%=      5-min Rain = 0
KCL2 131445Z 31007KT 06/03 A2993 RMK A01 T00550027  RH  082%=      5-min Rain = 0
KCL2 131446Z 31008KT 06/03 A2993 RMK A01 T00560027  RH  082%=      5-min Rain = 0
KCL2 131447Z 31007KT 06/03 A2993 RMK A01 T00560026  RH  081%=      5-min Rain = 0
KCL2 131448Z 31008KT 06/03 A2993 RMK A01 T00570027  RH  081%=      5-min Rain = 0
KCL2 131449Z 31008KT 06/03 A2993 RMK A01 T00590028  RH  080%=      5-min Rain = 0
KCL2 131450Z 31008KT 06/03 A2993 RMK A01 T00590027  RH  080%=      5-min Rain = 0
KCL2 131451Z 31008KT 06/03 A2993 RMK A01 T00610028  RH  080%=      5-min Rain = 0
KCL2 131452Z 31008KT 06/03 A2993 RMK A01 T00620028  RH  079%=      5-min Rain = 0
KCL2 131453Z 32007KT 06/03 A2993 RMK A01 T00630029  RH  079%=      5-min Rain = 0
KCL2 131454Z 31008KT 06/03 A2993 RMK A01 T00640030  RH  079%=      5-min Rain = 0
KCL2 131455Z 31007KT 06/03 A2993 RMK A01 T00640028  RH  078%=      5-min Rain = 0
KCL2 131456Z 30009KT 06/03 A2993 RMK A01 T00640028  RH  077%=      5-min Rain = 0
KCL2 131457Z 31008KT 06/03 A2993 RMK A01 T00640026  RH  076%=      5-min Rain = 0
KCL2 131458Z 31009KT 06/03 A2993 RMK A01 T00640027  RH  077%=      5-min Rain = 0
KCL2 131459Z 30008KT 06/03 A2993 RMK A01 T00640026  RH  076%=      5-min Rain = 0
KCL2 131500Z 31009KT 06/03 A2993 RMK A01 T00640025  RH  076%=      5-min Rain = 0
KCL2 131501Z 31008KT 06/03 A2993 RMK A01 T00640025  RH  076%=      5-min Rain = 0
KCL2 131502Z 31008KT 07/03 A2993 RMK A01 T00650025  RH  076%=      5-min Rain = 0
KCL2 131503Z 31009KT 07/03 A2993 RMK A01 T00650027  RH  076%=      5-min Rain = 0
KCL2 131504Z 31008KT 07/03 A2993 RMK A01 T00660027  RH  076%=      5-min Rain = 0
KCL2 131505Z 31008KT 07/03 A2993 RMK A01 T00670028  RH  076%=      5-min Rain = 0
KCL2 131506Z 31008KT 07/03 A2994 RMK A01 T00690028  RH  075%=      5-min Rain = 0
KCL2 131507Z 31007KT 07/03 A2994 RMK A01 T00690027  RH  075%=      5-min Rain = 0
KCL2 131508Z 31008KT 07/03 A2994 RMK A01 T00700028  RH  075%=      5-min Rain = 0
KCL2 131509Z 30009KT 07/03 A2994 RMK A01 T00700026  RH  074%=      5-min Rain = 0
KCL2 131510Z 30009KT 07/03 A2993 RMK A01 T00700025  RH  073%=      5-min Rain = 0
KCL2 131511Z 30008KT 07/03 A2993 RMK A01 T00700025  RH  073%=      5-min Rain = 0
KCL2 131512Z 30007KT 07/03 A2993 RMK A01 T00710026  RH  073%=      5-min Rain = 0
KCL2 131513Z 30009KT 07/03 A2993 RMK A01 T00720027  RH  073%=      5-min Rain = 0
KCL2 131514Z 29008KT 07/03 A2993 RMK A01 T00730026  RH  072%=      5-min Rain = 0
KCL2 131515Z 29010KT 07/03 A2993 RMK A01 T00740026  RH  072%=      5-min Rain = 0
KCL2 131516Z 29010KT 07/03 A2993 RMK A01 T00740025  RH  071%=      5-min Rain = 0
KCL2 131517Z 30010KT 07/02 A2993 RMK A01 T00740024  RH  070%=      5-min Rain = 0
KCL2 131518Z 30008KT 08/03 A2993 RMK A01 T00750025  RH  070%=      5-min Rain = 0
KCL2 131519Z 29010KT 08/02 A2993 RMK A01 T00760023  RH  069%=      5-min Rain = 0
KCL2 131520Z 29009KT 08/02 A2993 RMK A01 T00760022  RH  069%=      5-min Rain = 0
KCL2 131521Z 29007KT 08/02 A2993 RMK A01 T00770023  RH  069%=      5-min Rain = 0
KCL2 131522Z 29008KT 08/02 A2993 RMK A01 T00780024  RH  068%=      5-min Rain = 0
KCL2 131523Z 30010KT 08/02 A2993 RMK A01 T00800023  RH  067%=      5-min Rain = 0
KCL2 131524Z 30010KT 08/02 A2993 RMK A01 T00800023  RH  067%=      5-min Rain = 0
KCL2 131525Z 30010KT 08/02 A2993 RMK A01 T00800022  RH  066%=      5-min Rain = 0
KCL2 131526Z 30009KT 08/02 A2994 RMK A01 T00800023  RH  067%=      5-min Rain = 0
KCL2 131527Z 30008KT 08/02 A2994 RMK A01 T00810024  RH  067%=      5-min Rain = 0
KCL2 131528Z 30009KT 08/03 A2994 RMK A01 T00830025  RH  067%=      5-min Rain = 0
KCL2 131529Z 30010KT 08/02 A2994 RMK A01 T00840024  RH  066%=      5-min Rain = 0
KCL2 131530Z 30010KT 08/02 A2994 RMK A01 T00840023  RH  066%=      5-min Rain = 0
KCL2 131531Z 30010KT 08/02 A2994 RMK A01 T00830022  RH  065%=      5-min Rain = 0
KCL2 131532Z 30010KT 08/02 A2994 RMK A01 T00830024  RH  066%=      5-min Rain = 0
KCL2 131533Z 29009KT 08/02 A2994 RMK A01 T00840024  RH  066%=      5-min Rain = 0
KCL2 131534Z 30010KT 09/02 A2994 RMK A01 T00850024  RH  066%=      5-min Rain = 0
KCL2 131535Z 29011KT 09/02 A2994 RMK A01 T00850022  RH  065%=      5-min Rain = 0
KCL2 131536Z 30010KT 08/02 A2994 RMK A01 T00840023  RH  065%=      5-min Rain = 0
KCL2 131537Z 30011KT 09/02 A2994 RMK A01 T00860024  RH  065%=      5-min Rain = 0
KCL2 131538Z 30009KT 09/02 A2995 RMK A01 T00870024  RH  065%=      5-min Rain = 0
KCL2 131539Z 30010KT 09/02 A2995 RMK A01 T00880023  RH  063%=      5-min Rain = 0
KCL2 131540Z 30010KT 09/02 A2995 RMK A01 T00880024  RH  064%=      5-min Rain = 0
KCL2 131541Z 30010KT 09/02 A2995 RMK A01 T00890023  RH  063%=      5-min Rain = 0
KCL2 131542Z 31011KT 09/02 A2995 RMK A01 T00900024  RH  064%=      5-min Rain = 0
KCL2 131543Z 30013KT 09/02 A2995 RMK A01 T00910023  RH  063%=      5-min Rain = 0
KCL2 131544Z 30013KT 09/02 A2995 RMK A01 T00890021  RH  062%=      5-min Rain = 0
KCL2 131545Z 31013KT 09/02 A2995 RMK A01 T00890022  RH  063%=      5-min Rain = 0
KCL2 131546Z 31010KT 09/02 A2995 RMK A01 T00880022  RH  063%=      5-min Rain = 0
KCL2 131547Z 30012KT 09/02 A2995 RMK A01 T00890023  RH  063%=      5-min Rain = 0
KCL2 131548Z 31012KT 09/02 A2995 RMK A01 T00900023  RH  063%=      5-min Rain = 0
KCL2 131549Z 31010KT 09/02 A2995 RMK A01 T00890022  RH  063%=      5-min Rain = 0
KCL2 131550Z 31011KT 09/02 A2995 RMK A01 T00880024  RH  064%=      5-min Rain = 0
KCL2 131551Z 31011KT 09/03 A2995 RMK A01 T00890025  RH  064%=      5-min Rain = 0
KCL2 131552Z 30008KT 09/03 A2995 RMK A01 T00900026  RH  064%=      5-min Rain = 0
KCL2 131553Z 30012KT 09/03 A2995 RMK A01 T00920027  RH  064%=      5-min Rain = 0
KCL2 131554Z 30012KT 09/02 A2995 RMK A01 T00900024  RH  063%=      5-min Rain = 0
KCL2 131555Z 30011KT 09/02 A2995 RMK A01 T00870024  RH  064%=      5-min Rain = 0
KCL2 131556Z 31010KT 09/03 A2996 RMK A01 T00870025  RH  065%=      5-min Rain = 0
KCL2 131557Z 31010KT 09/03 A2996 RMK A01 T00890028  RH  066%=      5-min Rain = 0
KCL2 131558Z 30011KT 09/03 A2996 RMK A01 T00910029  RH  065%=      5-min Rain = 0
KCL2 131559Z 30011KT 09/03 A2996 RMK A01 T00910028  RH  065%=      5-min Rain = 0
KCL2 131600Z 30011KT 09/03 A2996 RMK A01 T00910029  RH  065%=      5-min Rain = 0
KCL2 131601Z 29012KT 09/03 A2996 RMK A01 T00910029  RH  065%=      5-min Rain = 0
KCL2 131602Z 29013KT 09/03 A2996 RMK A01 T00910028  RH  065%=      5-min Rain = 0
KCL2 131603Z 29012KT 09/03 A2996 RMK A01 T00890028  RH  065%=      5-min Rain = 0
KCL2 131604Z 30012KT 09/03 A2996 RMK A01 T00890029  RH  066%=      5-min Rain = 0
KCL2 131605Z 30011KT 09/03 A2996 RMK A01 T00900030  RH  066%=      5-min Rain = 0
KCL2 131606Z 30011KT 09/03 A2996 RMK A01 T00910031  RH  066%=      5-min Rain = 0
KCL2 131607Z 31009KT 09/03 A2995 RMK A01 T00920030  RH  065%=      5-min Rain = 0
KCL2 131608Z 30011KT 09/03 A2995 RMK A01 T00910031  RH  066%=      5-min Rain = 0
KCL2 131609Z 31010KT 09/03 A2995 RMK A01 T00920031  RH  066%=      5-min Rain = 0
KCL2 131610Z 31009KT 09/03 A2995 RMK A01 T00920033  RH  066%=      5-min Rain = 0
KCL2 131611Z 31009KT 09/03 A2995 RMK A01 T00940033  RH  066%=      5-min Rain = 0
KCL2 131612Z 30008KT 10/03 A2995 RMK A01 T00950033  RH  065%=      5-min Rain = 0
KCL2 131613Z 29010KT 10/03 A2995 RMK A01 T00950032  RH  065%=      5-min Rain = 0
KCL2 131614Z 30009KT 10/03 A2995 RMK A01 T00950032  RH  065%=      5-min Rain = 0
KCL2 131615Z 31010KT 10/03 A2995 RMK A01 T00960033  RH  065%=      5-min Rain = 0
KCL2 131616Z 29009KT 10/03 A2995 RMK A01 T00960032  RH  065%=      5-min Rain = 0
KCL2 131617Z 29008KT 10/03 A2995 RMK A01 T00970034  RH  065%=      5-min Rain = 0
KCL2 131618Z 30008KT 10/03 A2995 RMK A01 T00980034  RH  064%=      5-min Rain = 0
KCL2 131619Z 31008KT 10/03 A2995 RMK A01 T00970033  RH  064%=      5-min Rain = 0
KCL2 131620Z 30009KT 10/03 A2995 RMK A01 T00970034  RH  064%=      5-min Rain = 0
KCL2 131621Z 30007KT 10/03 A2995 RMK A01 T00970033  RH  064%=      5-min Rain = 0
KCL2 131622Z 31006KT 10/03 A2995 RMK A01 T00980034  RH  065%=      5-min Rain = 0
KCL2 131623Z 31007KT 10/04 A2995 RMK A01 T01000037  RH  065%=      5-min Rain = 0
KCL2 131624Z 29007KT 10/04 A2995 RMK A01 T01030036  RH  063%=      5-min Rain = 0
KCL2 131625Z 29006KT 10/04 A2995 RMK A01 T01030035  RH  063%=      5-min Rain = 0
KCL2 131626Z 28005KT 10/04 A2995 RMK A01 T01020036  RH  063%=      5-min Rain = 0
KCL2 131627Z 29006KT 11/04 A2995 RMK A01 T01050037  RH  063%=      5-min Rain = 0
KCL2 131628Z 31008KT 11/04 A2995 RMK A01 T01080037  RH  062%=      5-min Rain = 0
KCL2 131629Z 30006KT 11/04 A2995 RMK A01 T01080037  RH  062%=      5-min Rain = 0
KCL2 131630Z 31007KT 11/04 A2995 RMK A01 T01090039  RH  062%=      5-min Rain = 0
KCL2 131631Z 30007KT 11/04 A2995 RMK A01 T01110038  RH  061%=      5-min Rain = 0
KCL2 131632Z 30006KT 11/04 A2995 RMK A01 T01110038  RH  061%=      5-min Rain = 0
KCL2 131633Z 29007KT 11/04 A2996 RMK A01 T01110037  RH  060%=      5-min Rain = 0
KCL2 131634Z 29008KT 11/04 A2995 RMK A01 T01090036  RH  061%=      5-min Rain = 0
KCL2 131635Z 30010KT 11/04 A2995 RMK A01 T01070035  RH  061%=      5-min Rain = 0
KCL2 131636Z 30008KT 10/03 A2995 RMK A01 T01040034  RH  062%=      5-min Rain = 0
KCL2 131637Z 31007KT 10/04 A2995 RMK A01 T01010035  RH  063%=      5-min Rain = 0
KCL2 131638Z 30008KT 10/04 A2995 RMK A01 T01020037  RH  064%=      5-min Rain = 0
KCL2 131639Z 31007KT 10/04 A2995 RMK A01 T01030036  RH  063%=      5-min Rain = 0
KCL2 131640Z 31007KT 10/04 A2995 RMK A01 T01040037  RH  063%=      5-min Rain = 0
KCL2 131641Z 29007KT 11/04 A2995 RMK A01 T01050037  RH  063%=      5-min Rain = 0
KCL2 131642Z 28007KT 11/04 A2995 RMK A01 T01050036  RH  062%=      5-min Rain = 0
KCL2 131643Z 28006KT 10/04 A2995 RMK A01 T01040035  RH  062%=      5-min Rain = 0
KCL2 131644Z 30007KT 10/04 A2995 RMK A01 T01040036  RH  063%=      5-min Rain = 0
KCL2 131645Z 29006KT 11/04 A2995 RMK A01 T01050036  RH  062%=      5-min Rain = 0
KCL2 131646Z 29006KT 11/04 A2994 RMK A01 T01060037  RH  062%=      5-min Rain = 0
KCL2 131647Z 29007KT 11/04 A2994 RMK A01 T01060036  RH  062%=      5-min Rain = 0
KCL2 131648Z 29008KT 11/04 A2994 RMK A01 T01060036  RH  062%=      5-min Rain = 0
KCL2 131649Z 29006KT 11/04 A2995 RMK A01 T01050036  RH  062%=      5-min Rain = 0
KCL2 131650Z 29008KT 11/04 A2995 RMK A01 T01060037  RH  062%=      5-min Rain = 0
KCL2 131651Z 28009KT 11/04 A2995 RMK A01 T01070036  RH  062%=      5-min Rain = 0
KCL2 131652Z 30007KT 11/04 A2995 RMK A01 T01080037  RH  061%=      5-min Rain = 0
KCL2 131653Z 30006KT 11/04 A2994 RMK A01 T01110040  RH  062%=      5-min Rain = 0
KCL2 131654Z 31007KT 11/04 A2994 RMK A01 T01140040  RH  060%=      5-min Rain = 0
KCL2 131655Z 31006KT 11/04 A2994 RMK A01 T01140038  RH  059%=      5-min Rain = 0
KCL2 131656Z 30006KT 11/04 A2994 RMK A01 T01140039  RH  060%=      5-min Rain = 0
KCL2 131657Z 29007KT 12/04 A2994 RMK A01 T01150039  RH  059%=      5-min Rain = 0
KCL2 131658Z 28007KT 12/04 A2994 RMK A01 T01160039  RH  059%=      5-min Rain = 0
KCL2 131659Z 28008KT 12/04 A2994 RMK A01 T01160038  RH  059%=      5-min Rain = 0
KCL2 131700Z 29008KT 12/04 A2994 RMK A01 T01150037  RH  059%=      5-min Rain = 0
KCL2 131701Z 28009KT 12/04 A2994 RMK A01 T01150036  RH  059%=      5-min Rain = 0
KCL2 131702Z 29009KT 11/04 A2994 RMK A01 T01140035  RH  058%=      5-min Rain = 0
KCL2 131703Z 29008KT 11/04 A2994 RMK A01 T01140036  RH  058%=      5-min Rain = 0
KCL2 131704Z 29008KT 11/04 A2994 RMK A01 T01140036  RH  058%=      5-min Rain = 0
KCL2 131705Z 30008KT 12/04 A2994 RMK A01 T01150037  RH  059%=      5-min Rain = 0
KCL2 131706Z 30008KT 12/04 A2994 RMK A01 T01150039  RH  059%=      5-min Rain = 0
KCL2 131707Z 29007KT 12/04 A2994 RMK A01 T01150036  RH  058%=      5-min Rain = 0
KCL2 131708Z 29008KT 12/04 A2993 RMK A01 T01160037  RH  058%=      5-min Rain = 0
KCL2 131709Z 29008KT 12/04 A2993 RMK A01 T01170036  RH  058%=      5-min Rain = 0
KCL2 131710Z 29009KT 12/04 A2993 RMK A01 T01170036  RH  058%=      5-min Rain = 0
KCL2 131711Z 28008KT 12/04 A2993 RMK A01 T01170036  RH  057%=      5-min Rain = 0
KCL2 131712Z 28007KT 12/04 A2993 RMK A01 T01170036  RH  057%=      5-min Rain = 0
KCL2 131713Z 28006KT 12/04 A2993 RMK A01 T01170036  RH  058%=      5-min Rain = 0
KCL2 131714Z 29008KT 12/04 A2994 RMK A01 T01170037  RH  058%=      5-min Rain = 0
KCL2 131715Z 29006KT 12/04 A2994 RMK A01 T01180036  RH  057%=      5-min Rain = 0
KCL2 131716Z 31006KT 12/04 A2994 RMK A01 T01190037  RH  057%=      5-min Rain = 0
KCL2 131717Z 31007KT 12/04 A2993 RMK A01 T01200037  RH  057%=      5-min Rain = 0
KCL2 131718Z 30007KT 12/04 A2993 RMK A01 T01210038  RH  057%=      5-min Rain = 0
KCL2 131719Z 31006KT 12/04 A2993 RMK A01 T01210038  RH  057%=      5-min Rain = 0
KCL2 131720Z 31004KT 12/04 A2993 RMK A01 T01210039  RH  057%=      5-min Rain = 0
KCL2 131721Z 29006KT 12/04 A2993 RMK A01 T01210038  RH  057%=      5-min Rain = 0
KCL2 131722Z 30006KT 12/04 A2993 RMK A01 T01210038  RH  057%=      5-min Rain = 0
KCL2 131723Z 30006KT 13/04 A2993 RMK A01 T01250040  RH  056%=      5-min Rain = 0
KCL2 131724Z 29006KT 13/04 A2993 RMK A01 T01250037  RH  055%=      5-min Rain = 0
KCL2 131725Z 28008KT 13/04 A2992 RMK A01 T01260038  RH  055%=      5-min Rain = 0
KCL2 131726Z 29006KT 13/04 A2992 RMK A01 T01270036  RH  054%=      5-min Rain = 0
KCL2 131727Z 30007KT 13/04 A2992 RMK A01 T01270039  RH  055%=      5-min Rain = 0
KCL2 131728Z 29007KT 13/04 A2992 RMK A01 T01280038  RH  054%=      5-min Rain = 0
KCL2 131729Z 29005KT 13/04 A2992 RMK A01 T01280038  RH  054%=      5-min Rain = 0
KCL2 131730Z 28005KT 13/04 A2992 RMK A01 T01260037  RH  054%=      5-min Rain = 0
KCL2 131731Z 28007KT 13/04 A2991 RMK A01 T01250035  RH  054%=      5-min Rain = 0
KCL2 131732Z 29008KT 13/04 A2991 RMK A01 T01250036  RH  055%=      5-min Rain = 0
KCL2 131733Z 30006KT 13/04 A2991 RMK A01 T01260037  RH  055%=      5-min Rain = 0
KCL2 131734Z 32006KT 13/04 A2992 RMK A01 T01290039  RH  054%=      5-min Rain = 0
KCL2 131735Z 32004KT 13/04 A2992 RMK A01 T01300037  RH  053%=      5-min Rain = 0
KCL2 131736Z 29004KT 13/04 A2992 RMK A01 T01300037  RH  053%=      5-min Rain = 0
KCL2 131737Z 30005KT 13/04 A2992 RMK A01 T01300037  RH  053%=      5-min Rain = 0
KCL2 131738Z 29004KT 13/04 A2991 RMK A01 T01300035  RH  052%=      5-min Rain = 0
KCL2 131739Z 31004KT 13/04 A2991 RMK A01 T01300035  RH  053%=      5-min Rain = 0
KCL2 131740Z 32007KT 13/04 A2991 RMK A01 T01310036  RH  052%=      5-min Rain = 0
KCL2 131741Z 32005KT 13/04 A2991 RMK A01 T01340036  RH  052%=      5-min Rain = 0
KCL2 131742Z 30004KT 14/04 A2991 RMK A01 T01350037  RH  052%=      5-min Rain = 0
KCL2 131743Z 29004KT 14/04 A2991 RMK A01 T01360037  RH  051%=      5-min Rain = 0
KCL2 131744Z 28006KT 14/04 A2991 RMK A01 T01360037  RH  051%=      5-min Rain = 0
KCL2 131745Z 27005KT 14/04 A2991 RMK A01 T01350037  RH  051%=      5-min Rain = 0
KCL2 131746Z 29006KT 14/04 A2991 RMK A01 T01370038  RH  051%=      5-min Rain = 0
KCL2 131747Z 30004KT 14/04 A2991 RMK A01 T01390037  RH  050%=      5-min Rain = 0
KCL2 131748Z 30005KT 14/04 A2991 RMK A01 T01400037  RH  050%=      5-min Rain = 0
KCL2 131749Z 31007KT 14/04 A2991 RMK A01 T01410036  RH  049%=      5-min Rain = 0
KCL2 131750Z 29007KT 14/03 A2991 RMK A01 T01430034  RH  048%=      5-min Rain = 0
KCL2 131751Z 31005KT 14/04 A2991 RMK A01 T01420035  RH  048%=      5-min Rain = 0
KCL2 131752Z 30005KT 14/03 A2991 RMK A01 T01420034  RH  048%=      5-min Rain = 0
KCL2 131753Z 28007KT 14/03 A2991 RMK A01 T01420034  RH  048%=      5-min Rain = 0
KCL2 131754Z 28005KT 14/04 A2991 RMK A01 T01420035  RH  048%=      5-min Rain = 0
KCL2 131755Z 27005KT 14/04 A2991 RMK A01 T01440037  RH  048%=      5-min Rain = 0
KCL2 131756Z 27005KT 15/04 A299 RMK A01 T01450036  RH  048%=      5-min Rain = 0
KCL2 131757Z 30005KT 15/04 A299 RMK A01 T01470037  RH  047%=      5-min Rain = 0
KCL2 131758Z 32006KT 15/04 A2991 RMK A01 T01480035  RH  047%=      5-min Rain = 0
KCL2 131759Z 32006KT 15/04 A299 RMK A01 T01480035  RH  047%=      5-min Rain = 0
KCL2 131800Z 31006KT 15/04 A299 RMK A01 T01470036  RH  047%=      5-min Rain = 0
KCL2 131801Z 29004KT 15/04 A299 RMK A01 T01490037  RH  047%=      5-min Rain = 0
KCL2 131802Z 28006KT 15/04 A299 RMK A01 T01500037  RH  047%=      5-min Rain = 0
KCL2 131803Z 30007KT 15/04 A299 RMK A01 T01500035  RH  046%=      5-min Rain = 0
KCL2 131804Z 30006KT 15/03 A299 RMK A01 T01520028  RH  043%=      5-min Rain = 0
KCL2 131805Z 30006KT 15/03 A299 RMK A01 T01500029  RH  044%=      5-min Rain = 0
KCL2 131806Z 28007KT 15/03 A299 RMK A01 T01490033  RH  046%=      5-min Rain = 0
KCL2 131807Z 29008KT 15/03 A299 RMK A01 T01500030  RH  045%=      5-min Rain = 0
KCL2 131808Z 30007KT 15/03 A299 RMK A01 T01490028  RH  044%=      5-min Rain = 0
KCL2 131809Z 30005KT 15/03 A299 RMK A01 T01490027  RH  044%=      5-min Rain = 0
KCL2 131810Z 32007KT 15/03 A299 RMK A01 T01500029  RH  044%=      5-min Rain = 0
KCL2 131811Z 30009KT 15/03 A299 RMK A01 T01540031  RH  043%=      5-min Rain = 0
KCL2 131812Z 29007KT 16/03 A299 RMK A01 T01550028  RH  042%=      5-min Rain = 0
KCL2 131813Z 27005KT 15/03 A299 RMK A01 T01530028  RH  043%=      5-min Rain = 0
KCL2 131814Z 27008KT 15/03 A299 RMK A01 T01540031  RH  044%=      5-min Rain = 0
KCL2 131815Z 30008KT 16/03 A299 RMK A01 T01550032  RH  044%=      5-min Rain = 0
KCL2 131816Z 31007KT 16/03 A299 RMK A01 T01550027  RH  042%=      5-min Rain = 0
KCL2 131817Z 29006KT 15/03 A299 RMK A01 T01540028  RH  042%=      5-min Rain = 0
KCL2 131818Z 30007KT 16/03 A299 RMK A01 T01580029  RH  042%=      5-min Rain = 0
KCL2 131819Z 28009KT 16/03 A299 RMK A01 T01600028  RH  041%=      5-min Rain = 0
KCL2 131820Z 28007KT 16/03 A299 RMK A01 T01580028  RH  042%=      5-min Rain = 0
KCL2 131821Z 29007KT 16/03 A2989 RMK A01 T01580030  RH  042%=      5-min Rain = 0
KCL2 131822Z 29009KT 16/03 A2989 RMK A01 T01600028  RH  041%=      5-min Rain = 0
KCL2 131823Z 29009KT 16/03 A2989 RMK A01 T01600027  RH  041%=      5-min Rain = 0
KCL2 131824Z 30008KT 16/03 A299 RMK A01 T01600025  RH  040%=      5-min Rain = 0
KCL2 131825Z 31008KT 16/03 A299 RMK A01 T01590026  RH  041%=      5-min Rain = 0
KCL2 131826Z 30010KT 16/03 A299 RMK A01 T01600027  RH  041%=      5-min Rain = 0
KCL2 131827Z 30009KT 16/03 A299 RMK A01 T01600026  RH  041%=      5-min Rain = 0
KCL2 131828Z 31009KT 16/03 A299 RMK A01 T01580027  RH  041%=      5-min Rain = 0
KCL2 131829Z 30006KT 16/03 A299 RMK A01 T01580027  RH  041%=      5-min Rain = 0
KCL2 131830Z 28009KT 16/03 A2989 RMK A01 T01620029  RH  041%=      5-min Rain = 0
KCL2 131831Z 26007KT 16/02 A2989 RMK A01 T01620024  RH  039%=      5-min Rain = 0
KCL2 131832Z 26007G12KT 16/02 A2989 RMK A01 T01610024  RH  040%=      5-min Rain = 0
KCL2 131833Z 29010KT 16/02 A2989 RMK A01 T01620024  RH  039%=      5-min Rain = 0
KCL2 131834Z 29009KT 16/02 A2989 RMK A01 T01610024  RH  040%=      5-min Rain = 0
KCL2 131835Z 28009KT 16/02 A2989 RMK A01 T01590022  RH  039%=      5-min Rain = 0
KCL2 131836Z 29009KT 16/02 A2989 RMK A01 T01590022  RH  039%=      5-min Rain = 0
KCL2 131837Z 29008KT 16/02 A2988 RMK A01 T01590022  RH  040%=      5-min Rain = 0
KCL2 131838Z 28006KT 16/03 A2988 RMK A01 T01580025  RH  041%=      5-min Rain = 0
KCL2 131839Z 29004KT 16/03 A2988 RMK A01 T01560025  RH  041%=      5-min Rain = 0
KCL2 131840Z 26005KT 16/03 A2988 RMK A01 T01550026  RH  042%=      5-min Rain = 0
KCL2 131841Z 29007KT 16/02 A2988 RMK A01 T01570024  RH  041%=      5-min Rain = 0
KCL2 131842Z 30006KT 16/02 A2988 RMK A01 T01580019  RH  039%=      5-min Rain = 0
KCL2 131843Z 29005KT 16/02 A2988 RMK A01 T01580022  RH  040%=      5-min Rain = 0
KCL2 131844Z 29009KT 16/03 A2988 RMK A01 T01600026  RH  041%=      5-min Rain = 0
KCL2 131845Z 27007KT 16/03 A2988 RMK A01 T01600026  RH  041%=      5-min Rain = 0
KCL2 131846Z 26008KT 16/03 A2987 RMK A01 T01620028  RH  041%=      5-min Rain = 0
KCL2 131847Z 26008KT 16/02 A2987 RMK A01 T01640024  RH  039%=      5-min Rain = 0
KCL2 131848Z 26009KT 16/02 A2988 RMK A01 T01630024  RH  039%=      5-min Rain = 0
KCL2 131849Z 28008KT 16/02 A2988 RMK A01 T01630024  RH  039%=      5-min Rain = 0
KCL2 131850Z 28007KT 17/03 A2988 RMK A01 T01650026  RH  039%=      5-min Rain = 0
KCL2 131851Z 25009KT 17/02 A2988 RMK A01 T01650024  RH  039%=      5-min Rain = 0
KCL2 131852Z 26008KT 16/02 A2988 RMK A01 T01630022  RH  039%=      5-min Rain = 0
KCL2 131853Z 25007KT 16/02 A2988 RMK A01 T01610022  RH  039%=      5-min Rain = 0
KCL2 131854Z 25007KT 16/03 A2987 RMK A01 T01600025  RH  040%=      5-min Rain = 0
KCL2 131855Z 24008KT 16/02 A2987 RMK A01 T01620023  RH  039%=      5-min Rain = 0
KCL2 131856Z 26007KT 17/03 A2987 RMK A01 T01650025  RH  039%=      5-min Rain = 0
KCL2 131857Z 28009KT 17/02 A2987 RMK A01 T01680023  RH  038%=      5-min Rain = 0
KCL2 131858Z 27010KT 17/02 A2987 RMK A01 T01670020  RH  037%=      5-min Rain = 0
KCL2 131859Z 25008KT 17/02 A2987 RMK A01 T01660022  RH  038%=      5-min Rain = 0
KCL2 131900Z 25008KT 17/02 A2987 RMK A01 T01680022  RH  037%=      5-min Rain = 0
KCL2 131901Z 26010KT 17/02 A2987 RMK A01 T01680021  RH  037%=      5-min Rain = 0
KCL2 131902Z 25010KT 17/02 A2987 RMK A01 T01660020  RH  037%=      5-min Rain = 0
KCL2 131903Z 25009KT 16/02 A2987 RMK A01 T01640018  RH  038%=      5-min Rain = 0
KCL2 131904Z 24009KT 16/02 A2987 RMK A01 T01630019  RH  038%=      5-min Rain = 0
KCL2 131905Z 26006KT 17/02 A2987 RMK A01 T01650018  RH  037%=      5-min Rain = 0
KCL2 131906Z 28009KT 17/02 A2987 RMK A01 T01690019  RH  036%=      5-min Rain = 0
KCL2 131907Z 29010KT 17/02 A2987 RMK A01 T01710018  RH  036%=      5-min Rain = 0
KCL2 131908Z 28006KT 17/02 A2987 RMK A01 T01700018  RH  036%=      5-min Rain = 0
KCL2 131909Z 25008KT 17/02 A2987 RMK A01 T01710022  RH  037%=      5-min Rain = 0
KCL2 131910Z 25008KT 17/02 A2987 RMK A01 T01710020  RH  036%=      5-min Rain = 0
KCL2 131911Z 25010KT 17/02 A2987 RMK A01 T01690021  RH  037%=      5-min Rain = 0
KCL2 131912Z 25011KT 17/02 A2987 RMK A01 T01710020  RH  036%=      5-min Rain = 0
KCL2 131913Z 25010KT 17/02 A2987 RMK A01 T01710019  RH  036%=      5-min Rain = 0
KCL2 131914Z 27010KT 17/02 A2987 RMK A01 T01710019  RH  036%=      5-min Rain = 0
KCL2 131915Z 25006KT 17/02 A2987 RMK A01 T01700018  RH  036%=      5-min Rain = 0
KCL2 131916Z 25008KT 17/02 A2987 RMK A01 T01700020  RH  036%=      5-min Rain = 0
KCL2 131917Z 26009KT 17/01 A2987 RMK A01 T01720014  RH  035%=      5-min Rain = 0
KCL2 131918Z 26008KT 17/02 A2987 RMK A01 T01710015  RH  035%=      5-min Rain = 0
KCL2 131919Z 26008KT 17/01 A2987 RMK A01 T01730014  RH  034%=      5-min Rain = 0
KCL2 131920Z 26007KT 18/02 A2987 RMK A01 T01750015  RH  034%=      5-min Rain = 0
KCL2 131921Z 26010KT 18/01 A2987 RMK A01 T01760014  RH  034%=      5-min Rain = 0
KCL2 131922Z 28008KT 18/01 A2987 RMK A01 T01760013  RH  033%=      5-min Rain = 0
KCL2 131923Z 27008KT 18/01 A2987 RMK A01 T01750013  RH  034%=      5-min Rain = 0
KCL2 131924Z 27009KT 18/01 A2987 RMK A01 T01750013  RH  033%=      5-min Rain = 0
KCL2 131925Z 28008KT 18/02 A2987 RMK A01 T01800017  RH  033%=      5-min Rain = 0
KCL2 131926Z 26007KT 18/02 A2986 RMK A01 T01820016  RH  033%=      5-min Rain = 0
KCL2 131927Z 25007KT 18/01 A2986 RMK A01 T01820013  RH  032%=      5-min Rain = 0
KCL2 131928Z 25007KT 18/01 A2986 RMK A01 T01780013  RH  033%=      5-min Rain = 0
KCL2 131929Z 26007KT 18/02 A2986 RMK A01 T01770017  RH  034%=      5-min Rain = 0
KCL2 131930Z 24007KT 18/02 A2986 RMK A01 T01780016  RH  034%=      5-min Rain = 0
KCL2 131931Z 25007KT 18/02 A2986 RMK A01 T01770015  RH  034%=      5-min Rain = 0
KCL2 131932Z 25007KT 17/01 A2986 RMK A01 T01740013  RH  034%=      5-min Rain = 0
KCL2 131933Z 24008KT 17/01 A2986 RMK A01 T01740014  RH  034%=      5-min Rain = 0
KCL2 131934Z 24009KT 18/02 A2986 RMK A01 T01750016  RH  034%=      5-min Rain = 0
KCL2 131935Z 25007KT 18/02 A2986 RMK A01 T01760018  RH  034%=      5-min Rain = 0
KCL2 131936Z 26010KT 18/02 A2986 RMK A01 T01750016  RH  034%=      5-min Rain = 0
KCL2 131937Z 27012KT 17/02 A2986 RMK A01 T01740015  RH  034%=      5-min Rain = 0
KCL2 131938Z 27010KT 17/01 A2986 RMK A01 T01740014  RH  034%=      5-min Rain = 0
KCL2 131939Z 27006KT 17/01 A2986 RMK A01 T01720014  RH  034%=      5-min Rain = 0
KCL2 131940Z 26006KT 17/02 A2986 RMK A01 T01730015  RH  034%=      5-min Rain = 0
KCL2 131941Z 25005KT 18/02 A2986 RMK A01 T01750017  RH  034%=      5-min Rain = 0
KCL2 131942Z 25007KT 18/02 A2986 RMK A01 T01760016  RH  034%=      5-min Rain = 0
KCL2 131943Z 26007KT 18/02 A2986 RMK A01 T01770017  RH  034%=      5-min Rain = 0
KCL2 131944Z 26010KT 18/02 A2986 RMK A01 T01790019  RH  034%=      5-min Rain = 0
KCL2 131945Z 26010KT 18/02 A2986 RMK A01 T01790016  RH  034%=      5-min Rain = 0
KCL2 131946Z 25008KT 18/02 A2986 RMK A01 T01770015  RH  034%=      5-min Rain = 0
KCL2 131947Z 26006KT 18/02 A2986 RMK A01 T01750015  RH  034%=      5-min Rain = 0
KCL2 131948Z 29006KT 18/02 A2986 RMK A01 T01770018  RH  034%=      5-min Rain = 0
KCL2 131949Z 29009KT 18/02 A2986 RMK A01 T01810017  RH  033%=      5-min Rain = 0
KCL2 131950Z 29008KT 18/02 A2986 RMK A01 T01810016  RH  033%=      5-min Rain = 0
KCL2 131951Z 29009KT 18/02 A2986 RMK A01 T01800015  RH  033%=      5-min Rain = 0
KCL2 131952Z 30009KT 18/02 A2986 RMK A01 T01800016  RH  033%=      5-min Rain = 0
KCL2 131953Z 27008KT 18/02 A2985 RMK A01 T01800019  RH  034%=      5-min Rain = 0
KCL2 131954Z 28008KT 18/02 A2986 RMK A01 T01820018  RH  033%=      5-min Rain = 0
KCL2 131955Z 31009KT 18/02 A2986 RMK A01 T01820018  RH  033%=      5-min Rain = 0
KCL2 131956Z 30008KT 18/02 A2985 RMK A01 T01820018  RH  033%=      5-min Rain = 0
KCL2 131957Z 29009KT 18/02 A2985 RMK A01 T01810016  RH  033%=      5-min Rain = 0
KCL2 131958Z 29010KT 18/01 A2985 RMK A01 T01810014  RH  033%=      5-min Rain = 0
KCL2 131959Z 28007KT 18/02 A2985 RMK A01 T01810015  RH  033%=      5-min Rain = 0
KCL2 132000Z 28009KT 18/02 A2985 RMK A01 T01820015  RH  032%=      5-min Rain = 0
KCL2 132001Z 28010KT 18/01 A2985 RMK A01 T01820007  RH  031%=      5-min Rain = 0
KCL2 132002Z 28012KT 18/01 A2985 RMK A01 T01820007  RH  031%=      5-min Rain = 0
KCL2 132003Z 27009KT 18/01 A2985 RMK A01 T01820007  RH  031%=      5-min Rain = 0
KCL2 132004Z 29009KT 18/01 A2985 RMK A01 T01810010  RH  032%=      5-min Rain = 0
KCL2 132005Z 28011KT 18/01 A2985 RMK A01 T01830009  RH  031%=      5-min Rain = 0
KCL2 132006Z 28009KT 18/01 A2985 RMK A01 T01840007  RH  030%=      5-min Rain = 0
KCL2 132007Z 29010KT 18/01 A2985 RMK A01 T01830008  RH  031%=      5-min Rain = 0
KCL2 132008Z 29008KT 19/01 A2985 RMK A01 T01850006  RH  030%=      5-min Rain = 0
KCL2 132009Z 30008KT 19/01 A2985 RMK A01 T01870007  RH  030%=      5-min Rain = 0
KCL2 132010Z 29009KT 19/01 A2984 RMK A01 T01880009  RH  030%=      5-min Rain = 0
KCL2 132011Z 29011KT 19/01 A2984 RMK A01 T01890007  RH  029%=      5-min Rain = 0
KCL2 132012Z 30011KT 19/01 A2984 RMK A01 T01870008  RH  030%=      5-min Rain = 0
KCL2 132013Z 30010KT 19/01 A2984 RMK A01 T01850007  RH  030%=      5-min Rain = 0
KCL2 132014Z 30009KT 18/01 A2984 RMK A01 T01820006  RH  031%=      5-min Rain = 0
KCL2 132015Z 30006KT 18/01 A2984 RMK A01 T01810006  RH  031%=      5-min Rain = 0
KCL2 132016Z 31008KT 18/01 A2984 RMK A01 T01800008  RH  031%=      5-min Rain = 0
KCL2 132017Z 31007KT 18/01 A2985 RMK A01 T01800010  RH  032%=      5-min Rain = 0
KCL2 132018Z 31010KT 18/01 A2985 RMK A01 T01820012  RH  032%=      5-min Rain = 0
KCL2 132019Z 30009KT 18/01 A2985 RMK A01 T01840011  RH  031%=      5-min Rain = 0
KCL2 132020Z 30007KT 18/01 A2985 RMK A01 T01840011  RH  031%=      5-min Rain = 0
KCL2 132021Z 30007KT 19/01 A2985 RMK A01 T01850012  RH  031%=      5-min Rain = 0
KCL2 132022Z 31010KT 19/01 A2985 RMK A01 T01860009  RH  030%=      5-min Rain = 0
KCL2 132023Z 30011KT 19/01 A2984 RMK A01 T01860005  RH  030%=      5-min Rain = 0
KCL2 132024Z 30010KT 19/00 A2984 RMK A01 T01860003  RH  029%=      5-min Rain = 0
KCL2 132025Z 29008KT 19/00 A2984 RMK A01 T01860003  RH  029%=      5-min Rain = 0
KCL2 132026Z 30008KT 19/00 A2984 RMK A01 T01860003  RH  029%=      5-min Rain = 0
KCL2 132027Z 30010KT 19/00 A2984 RMK A01 T01860004  RH  029%=      5-min Rain = 0
KCL2 132028Z 31010KT 19/00 A2984 RMK A01 T01870004  RH  029%=      5-min Rain = 0
KCL2 132029Z 30010KT 19/01 A2984 RMK A01 T01870006  RH  030%=      5-min Rain = 0
KCL2 132030Z 29011KT 19/01 A2984 RMK A01 T01880005  RH  029%=      5-min Rain = 0
KCL2 132031Z 29011KT 19/01 A2984 RMK A01 T01870006  RH  030%=      5-min Rain = 0
KCL2 132032Z 29011KT 19/01 A2984 RMK A01 T01860006  RH  030%=      5-min Rain = 0
KCL2 132033Z 30009KT 18/01 A2984 RMK A01 T01840006  RH  030%=      5-min Rain = 0
KCL2 132034Z 30007KT 18/01 A2985 RMK A01 T01840010  RH  031%=      5-min Rain = 0
KCL2 132035Z 28011KT 19/01 A2985 RMK A01 T01870009  RH  030%=      5-min Rain = 0
KCL2 132036Z 28008KT 19/01 A2985 RMK A01 T01870006  RH  030%=      5-min Rain = 0
KCL2 132037Z 28008KT 19/01 A2985 RMK A01 T01850007  RH  030%=      5-min Rain = 0
KCL2 132038Z 29009KT 18/01 A2985 RMK A01 T01840008  RH  031%=      5-min Rain = 0
KCL2 132039Z 28010KT 18/01 A2985 RMK A01 T01840008  RH  031%=      5-min Rain = 0
KCL2 132040Z 29009KT 18/01 A2985 RMK A01 T01840007  RH  030%=      5-min Rain = 0
KCL2 132041Z 28009KT 19/01 A2985 RMK A01 T01850008  RH  030%=      5-min Rain = 0
KCL2 132042Z 28008KT 19/01 A2985 RMK A01 T01860008  RH  030%=      5-min Rain = 0
KCL2 132043Z 28008KT 19/01 A2985 RMK A01 T01870008  RH  030%=      5-min Rain = 0
KCL2 132044Z 26010KT 19/01 A2985 RMK A01 T01860008  RH  030%=      5-min Rain = 0
KCL2 132045Z 26010KT 19/01 A2985 RMK A01 T01870008  RH  030%=      5-min Rain = 0
KCL2 132046Z 26007KT 19/01 A2985 RMK A01 T01870009  RH  030%=      5-min Rain = 0
KCL2 132047Z 29008KT 19/01 A2985 RMK A01 T01870010  RH  031%=      5-min Rain = 0
KCL2 132048Z 30008KT 19/01 A2985 RMK A01 T01870007  RH  030%=      5-min Rain = 0
KCL2 132049Z 30008KT 19/01 A2985 RMK A01 T01850008  RH  030%=      5-min Rain = 0
KCL2 132050Z 30007KT 18/01 A2985 RMK A01 T01840009  RH  031%=      5-min Rain = 0
KCL2 132051Z 29007KT 19/01 A2985 RMK A01 T01850011  RH  031%=      5-min Rain = 0
KCL2 132052Z 27008KT 19/01 A2985 RMK A01 T01880012  RH  031%=      5-min Rain = 0
KCL2 132053Z 27009KT 19/01 A2985 RMK A01 T01900010  RH  030%=      5-min Rain = 0
KCL2 132054Z 26009KT 19/01 A2985 RMK A01 T01900008  RH  030%=      5-min Rain = 0
KCL2 132055Z 26009KT 19/01 A2985 RMK A01 T01900008  RH  030%=      5-min Rain = 0
KCL2 132056Z 27010KT 19/01 A2985 RMK A01 T01890007  RH  029%=      5-min Rain = 0
KCL2 132057Z 27010KT 19/01 A2985 RMK A01 T01890007  RH  029%=      5-min Rain = 0
KCL2 132058Z 28009KT 19/01 A2985 RMK A01 T01890006  RH  029%=      5-min Rain = 0
KCL2 132059Z 28009KT 19/01 A2985 RMK A01 T01880005  RH  029%=      5-min Rain = 0
KCL2 132100Z 29008KT 19/01 A2985 RMK A01 T01890008  RH  030%=      5-min Rain = 0
KCL2 132101Z 30009KT 19/01 A2985 RMK A01 T01910009  RH  030%=      5-min Rain = 0
KCL2 132102Z 30007KT 19/01 A2985 RMK A01 T01920009  RH  029%=      5-min Rain = 0
KCL2 132103Z 31009KT 19/01 A2985 RMK A01 T01920011  RH  030%=      5-min Rain = 0
KCL2 132104Z 30008KT 19/01 A2985 RMK A01 T01930011  RH  030%=      5-min Rain = 0
KCL2 132105Z 27008KT 20/01 A2985 RMK A01 T01950008  RH  029%=      5-min Rain = 0
KCL2 132106Z 29006KT 20/00 A2985 RMK A01 T01950002  RH  027%=      5-min Rain = 0
KCL2 132107Z 29005KT 19/01 A2985 RMK A01 T01940006  RH  028%=      5-min Rain = 0
KCL2 132108Z 28007KT 20/01 A2984 RMK A01 T01950007  RH  028%=      5-min Rain = 0
KCL2 132109Z 28007KT 20/01 A2984 RMK A01 T01950008  RH  029%=      5-min Rain = 0
KCL2 132110Z 29008KT 20/01 A2984 RMK A01 T01950008  RH  028%=      5-min Rain = 0
KCL2 132111Z 30007KT 19/01 A2984 RMK A01 T01930005  RH  028%=      5-min Rain = 0
KCL2 132112Z 30005KT 19/01 A2984 RMK A01 T01930006  RH  029%=      5-min Rain = 0
KCL2 132113Z 29006KT 19/01 A2984 RMK A01 T01930006  RH  029%=      5-min Rain = 0
KCL2 132114Z 30009KT 19/00 A2984 RMK A01 T01940004  RH  028%=      5-min Rain = 0
KCL2 132115Z 30010KT 19/00 A2984 RMK A01 T01930001  RH  028%=      5-min Rain = 0
KCL2 132116Z 30010KT 19/00 A2984 RMK A01 T01920003  RH  028%=      5-min Rain = 0
KCL2 132117Z 30007KT 19/00 A2984 RMK A01 T01910002  RH  028%=      5-min Rain = 0
KCL2 132118Z 30008KT 19/00 A2984 RMK A01 T01900001  RH  028%=      5-min Rain = 0
KCL2 132119Z 30007KT 19/00 A2984 RMK A01 T01900002  RH  028%=      5-min Rain = 0
KCL2 132120Z 30008KT 19/00 A2984 RMK A01 T01900003  RH  028%=      5-min Rain = 0
KCL2 132121Z 29007KT 19/00 A2984 RMK A01 T01910004  RH  028%=      5-min Rain = 0
KCL2 132122Z 29008KT 19/00 A2984 RMK A01 T01920001  RH  028%=      5-min Rain = 0
KCL2 132123Z 30007KT 19/00 A2984 RMK A01 T01910001  RH  028%=      5-min Rain = 0
KCL2 132124Z 28007KT 19/00 A2984 RMK A01 T01910002  RH  028%=      5-min Rain = 0
KCL2 132125Z 30008KT 19/00 A2984 RMK A01 T01920002  RH  028%=      5-min Rain = 0
KCL2 132126Z 30008KT 19/00 A2984 RMK A01 T01920002  RH  028%=      5-min Rain = 0
KCL2 132127Z 28006KT 19/00 A2984 RMK A01 T01930001  RH  028%=      5-min Rain = 0
KCL2 132128Z 29006KT 19/00 A2984 RMK A01 T01930002  RH  028%=      5-min Rain = 0
KCL2 132129Z 30005KT 19/00 A2984 RMK A01 T01940002  RH  028%=      5-min Rain = 0
KCL2 132130Z 30007KT 20/00 A2984 RMK A01 T01950003  RH  028%=      5-min Rain = 0
KCL2 132131Z 30007KT 20/00 A2984 RMK A01 T01950002  RH  027%=      5-min Rain = 0
KCL2 132132Z 30008KT 19/00 A2984 RMK A01 T01940003  RH  028%=      5-min Rain = 0
KCL2 132133Z 28005KT 19/00 A2984 RMK A01 T01940001  RH  027%=      5-min Rain = 0
KCL2 132134Z 31005KT 19/00 A2984 RMK A01 T01930002  RH  028%=      5-min Rain = 0
KCL2 132135Z 31007KT 19/00 A2984 RMK A01 T01920004  RH  028%=      5-min Rain = 0
KCL2 132136Z 30009KT 19/00 A2984 RMK A01 T01920003  RH  028%=      5-min Rain = 0
KCL2 132137Z 31008KT 19/00 A2985 RMK A01 T01910004  RH  028%=      5-min Rain = 0
KCL2 132138Z 31007KT 19/00 A2985 RMK A01 T01910004  RH  028%=      5-min Rain = 0
KCL2 132139Z 31006KT 19/01 A2985 RMK A01 T01900005  RH  029%=      5-min Rain = 0
KCL2 132140Z 32008KT 19/00 A2985 RMK A01 T01900004  RH  029%=      5-min Rain = 0
KCL2 132141Z 31009KT 19/00 A2985 RMK A01 T01900004  RH  029%=      5-min Rain = 0
KCL2 132142Z 32007KT 19/00 A2985 RMK A01 T01890004  RH  029%=      5-min Rain = 0
KCL2 132143Z 31008KT 19/00 A2985 RMK A01 T01890004  RH  029%=      5-min Rain = 0
KCL2 132144Z 31006KT 19/01 A2985 RMK A01 T01890007  RH  029%=      5-min Rain = 0
KCL2 132145Z 32008KT 19/01 A2985 RMK A01 T01890007  RH  029%=      5-min Rain = 0
KCL2 132146Z 31008KT 19/01 A2985 RMK A01 T01890007  RH  029%=      5-min Rain = 0
KCL2 132147Z 31007KT 19/01 A2985 RMK A01 T01890005  RH  029%=      5-min Rain = 0
KCL2 132148Z 30005KT 19/01 A2985 RMK A01 T01890007  RH  029%=      5-min Rain = 0
KCL2 132149Z 30007KT 19/01 A2985 RMK A01 T01880007  RH  029%=      5-min Rain = 0
KCL2 132150Z 30006KT 19/00 A2985 RMK A01 T01880004  RH  029%=      5-min Rain = 0
KCL2 132151Z 31007KT 19/01 A2985 RMK A01 T01880005  RH  029%=      5-min Rain = 0
KCL2 132152Z 31006KT 19/01 A2985 RMK A01 T01880006  RH  029%=      5-min Rain = 0
KCL2 132153Z 31006KT 19/01 A2985 RMK A01 T01880007  RH  030%=      5-min Rain = 0
KCL2 132154Z 30006KT 19/01 A2985 RMK A01 T01890007  RH  030%=      5-min Rain = 0
KCL2 132155Z 29006KT 19/01 A2985 RMK A01 T01900009  RH  030%=      5-min Rain = 0
KCL2 132156Z 29007KT 19/01 A2985 RMK A01 T01910008  RH  029%=      5-min Rain = 0
KCL2 132157Z 29006KT 19/01 A2985 RMK A01 T01900005  RH  029%=      5-min Rain = 0
KCL2 132158Z 30006KT 19/01 A2985 RMK A01 T01900006  RH  029%=      5-min Rain = 0
KCL2 132159Z 28004KT 19/01 A2985 RMK A01 T01900006  RH  029%=      5-min Rain = 0
KCL2 132200Z 30004KT 19/01 A2985 RMK A01 T01900007  RH  029%=      5-min Rain = 0
KCL2 132201Z 30005KT 19/01 A2985 RMK A01 T01900008  RH  029%=      5-min Rain = 0
KCL2 132202Z 30005KT 19/01 A2985 RMK A01 T01900008  RH  029%=      5-min Rain = 0
KCL2 132203Z 31005KT 19/01 A2985 RMK A01 T01900007  RH  029%=      5-min Rain = 0
KCL2 132204Z 30005KT 19/01 A2985 RMK A01 T01890007  RH  029%=      5-min Rain = 0
KCL2 132205Z 29006KT 19/01 A2985 RMK A01 T01890007  RH  029%=      5-min Rain = 0
KCL2 132206Z 29006KT 19/01 A2985 RMK A01 T01890006  RH  029%=      5-min Rain = 0
KCL2 132207Z 29004KT 19/01 A2985 RMK A01 T01900007  RH  029%=      5-min Rain = 0
KCL2 132208Z 29004KT 19/01 A2985 RMK A01 T01910008  RH  029%=      5-min Rain = 0
KCL2 132209Z 29004KT 19/01 A2985 RMK A01 T01910007  RH  029%=      5-min Rain = 0
KCL2 132210Z 29004KT 19/01 A2985 RMK A01 T01920008  RH  029%=      5-min Rain = 0
KCL2 132211Z 29005KT 19/01 A2985 RMK A01 T01930007  RH  029%=      5-min Rain = 0
KCL2 132212Z 29006KT 19/01 A2985 RMK A01 T01940007  RH  029%=      5-min Rain = 0
KCL2 132213Z 29004KT 19/01 A2985 RMK A01 T01940007  RH  028%=      5-min Rain = 0
KCL2 132214Z 29004KT 19/01 A2985 RMK A01 T01940007  RH  028%=      5-min Rain = 0
KCL2 132215Z 30004KT 19/01 A2985 RMK A01 T01940007  RH  028%=      5-min Rain = 0
KCL2 132216Z 29004KT 19/01 A2985 RMK A01 T01940007  RH  028%=      5-min Rain = 0
KCL2 132217Z 29005KT 19/01 A2985 RMK A01 T01940007  RH  029%=      5-min Rain = 0
KCL2 132218Z 29005KT 20/01 A2985 RMK A01 T01950008  RH  028%=      5-min Rain = 0
KCL2 132219Z 29003KT 20/01 A2985 RMK A01 T01960006  RH  028%=      5-min Rain = 0
KCL2 132220Z 31003KT 20/01 A2985 RMK A01 T01960008  RH  028%=      5-min Rain = 0
KCL2 132221Z 29004KT 20/01 A2985 RMK A01 T01960008  RH  028%=      5-min Rain = 0
KCL2 132222Z 29005KT 20/01 A2985 RMK A01 T01970007  RH  028%=      5-min Rain = 0
KCL2 132223Z 30005KT 20/01 A2985 RMK A01 T01960007  RH  028%=      5-min Rain = 0
KCL2 132224Z 30005KT 20/01 A2985 RMK A01 T01960007  RH  028%=      5-min Rain = 0
KCL2 132225Z 29005KT 20/01 A2985 RMK A01 T01950008  RH  029%=      5-min Rain = 0
KCL2 132226Z 29006KT 20/01 A2985 RMK A01 T01950009  RH  029%=      5-min Rain = 0
KCL2 132227Z 29005KT 20/01 A2985 RMK A01 T01960008  RH  028%=      5-min Rain = 0
KCL2 132228Z 29004KT 20/01 A2985 RMK A01 T01950007  RH  028%=      5-min Rain = 0
KCL2 132229Z 29004KT 20/01 A2985 RMK A01 T01950008  RH  029%=      5-min Rain = 0
KCL2 132230Z 28004KT 20/01 A2985 RMK A01 T01950007  RH  028%=      5-min Rain = 0
KCL2 132231Z 28003KT 20/01 A2985 RMK A01 T01950007  RH  028%=      5-min Rain = 0
KCL2 132232Z 28004KT 20/01 A2984 RMK A01 T01950007  RH  028%=      5-min Rain = 0
KCL2 132233Z 29004KT 20/01 A2984 RMK A01 T01950007  RH  028%=      5-min Rain = 0
KCL2 132234Z 29003KT 20/01 A2984 RMK A01 T01950006  RH  028%=      5-min Rain = 0
KCL2 132235Z 27003KT 20/01 A2984 RMK A01 T01950007  RH  028%=      5-min Rain = 0
KCL2 132236Z 28004KT 20/01 A2984 RMK A01 T01950007  RH  028%=      5-min Rain = 0
KCL2 132237Z 28003KT 20/01 A2984 RMK A01 T01950007  RH  028%=      5-min Rain = 0
KCL2 132238Z 27003KT 20/01 A2984 RMK A01 T01950007  RH  028%=      5-min Rain = 0
KCL2 132239Z 26003KT 20/01 A2984 RMK A01 T01950006  RH  028%=      5-min Rain = 0
KCL2 132240Z 26004KT 20/01 A2984 RMK A01 T01950006  RH  028%=      5-min Rain = 0
KCL2 132241Z 26003KT 20/01 A2984 RMK A01 T01950007  RH  028%=      5-min Rain = 0
KCL2 132242Z 25003KT 20/01 A2984 RMK A01 T01950007  RH  029%=      5-min Rain = 0
KCL2 132243Z 26003KT 19/01 A2984 RMK A01 T01940007  RH  028%=      5-min Rain = 0
KCL2 132244Z 25003KT 19/01 A2985 RMK A01 T01930006  RH  028%=      5-min Rain = 0
KCL2 132245Z 26002KT 19/01 A2985 RMK A01 T01920006  RH  029%=      5-min Rain = 0
KCL2 132246Z 25002KT 19/01 A2985 RMK A01 T01920006  RH  029%=      5-min Rain = 0
KCL2 132247Z 26002KT 19/01 A2985 RMK A01 T01910006  RH  029%=      5-min Rain = 0
KCL2 132248Z 26003KT 19/01 A2985 RMK A01 T01910006  RH  029%=      5-min Rain = 0
KCL2 132249Z 26003KT 19/01 A2985 RMK A01 T01900006  RH  029%=      5-min Rain = 0
KCL2 132250Z 26003KT 19/01 A2985 RMK A01 T01890006  RH  029%=      5-min Rain = 0
KCL2 132251Z 26002KT 19/01 A2985 RMK A01 T01870005  RH  029%=      5-min Rain = 0
KCL2 132252Z 26002KT 19/01 A2985 RMK A01 T01860006  RH  030%=      5-min Rain = 0
KCL2 132253Z 27002KT 19/01 A2985 RMK A01 T01850006  RH  030%=      5-min Rain = 0
KCL2 132254Z 27002KT 18/01 A2985 RMK A01 T01840005  RH  030%=      5-min Rain = 0
KCL2 132255Z 26002KT 18/01 A2984 RMK A01 T01840005  RH  030%=      5-min Rain = 0
KCL2 132256Z 26002KT 18/01 A2984 RMK A01 T01830005  RH  030%=      5-min Rain = 0
KCL2 132257Z 26002KT 18/01 A2984 RMK A01 T01820005  RH  030%=      5-min Rain = 0
KCL2 132258Z 26002KT 18/01 A2984 RMK A01 T01810005  RH  030%=      5-min Rain = 0
KCL2 132259Z 25002KT 18/01 A2984 RMK A01 T01810005  RH  030%=      5-min Rain = 0
KCL2 132300Z 25002KT 18/00 A2984 RMK A01 T01800004  RH  031%=      5-min Rain = 0
KCL2 132301Z 25002KT 18/00 A2984 RMK A01 T01800004  RH  031%=      5-min Rain = 0
KCL2 132302Z 24002KT 18/01 A2984 RMK A01 T01800006  RH  031%=      5-min Rain = 0
KCL2 132303Z 24002KT 18/01 A2985 RMK A01 T01790007  RH  031%=      5-min Rain = 0
KCL2 132304Z 25002KT 18/01 A2985 RMK A01 T01790007  RH  031%=      5-min Rain = 0
KCL2 132305Z 25002KT 18/01 A2985 RMK A01 T01790007  RH  031%=      5-min Rain = 0
KCL2 132306Z 25002KT 18/01 A2985 RMK A01 T01790007  RH  031%=      5-min Rain = 0
KCL2 132307Z 25002KT 18/01 A2985 RMK A01 T01790007  RH  031%=      5-min Rain = 0
KCL2 132308Z 25002KT 18/01 A2984 RMK A01 T01790007  RH  031%=      5-min Rain = 0
KCL2 132309Z 24001KT 18/01 A2984 RMK A01 T01790007  RH  031%=      5-min Rain = 0
KCL2 132310Z 24001KT 18/01 A2984 RMK A01 T01790007  RH  031%=      5-min Rain = 0
KCL2 132311Z 24001KT 18/01 A2984 RMK A01 T01790008  RH  031%=      5-min Rain = 0
KCL2 132312Z 24001KT 18/01 A2984 RMK A01 T01800008  RH  031%=      5-min Rain = 0
KCL2 132313Z 24001KT 18/01 A2984 RMK A01 T01800008  RH  031%=      5-min Rain = 0
KCL2 132314Z 24000KT 18/01 A2984 RMK A01 T01800008  RH  031%=      5-min Rain = 0
KCL2 132315Z 00000KT 18/01 A2984 RMK A01 T01790008  RH  031%=      5-min Rain = 0
KCL2 132316Z 00000KT 18/01 A2984 RMK A01 T01790008  RH  031%=      5-min Rain = 0
KCL2 132317Z 00000KT 18/01 A2984 RMK A01 T01780008  RH  032%=      5-min Rain = 0
KCL2 132318Z 00000KT 18/01 A2984 RMK A01 T01780008  RH  032%=      5-min Rain = 0
KCL2 132319Z 00000KT 18/01 A2984 RMK A01 T01780009  RH  032%=      5-min Rain = 0
KCL2 132320Z 00000KT 18/01 A2984 RMK A01 T01770008  RH  032%=      5-min Rain = 0
KCL2 132321Z 00000KT 18/01 A2984 RMK A01 T01760009  RH  032%=      5-min Rain = 0
KCL2 132322Z 00000KT 18/01 A2984 RMK A01 T01750008  RH  033%=      5-min Rain = 0
KCL2 132323Z 00000KT 17/01 A2984 RMK A01 T01740008  RH  033%=      5-min Rain = 0
KCL2 132324Z 00000KT 17/01 A2984 RMK A01 T01740008  RH  033%=      5-min Rain = 0
KCL2 132325Z 00000KT 17/01 A2985 RMK A01 T01740007  RH  033%=      5-min Rain = 0
KCL2 132326Z 00000KT 17/01 A2985 RMK A01 T01740007  RH  033%=      5-min Rain = 0
KCL2 132327Z 00000KT 17/01 A2985 RMK A01 T01740007  RH  032%=      5-min Rain = 0
KCL2 132328Z 00000KT 17/01 A2985 RMK A01 T01730006  RH  032%=      5-min Rain = 0
KCL2 132329Z 00000KT 17/01 A2985 RMK A01 T01730007  RH  032%=      5-min Rain = 0
KCL2 132330Z 00000KT 17/01 A2985 RMK A01 T01730006  RH  032%=      5-min Rain = 0
KCL2 132331Z 00000KT 17/01 A2985 RMK A01 T01730006  RH  032%=      5-min Rain = 0
KCL2 132332Z 00000KT 17/01 A2985 RMK A01 T01720008  RH  033%=      5-min Rain = 0
KCL2 132333Z 00000KT 17/01 A2984 RMK A01 T01710007  RH  033%=      5-min Rain = 0
KCL2 132334Z 00000KT 17/01 A2985 RMK A01 T01710005  RH  033%=      5-min Rain = 0
KCL2 132335Z 00000KT 17/01 A2985 RMK A01 T01710005  RH  033%=      5-min Rain = 0
KCL2 132336Z 19000KT 17/01 A2985 RMK A01 T01710005  RH  033%=      5-min Rain = 0
KCL2 132337Z 19001KT 17/01 A2985 RMK A01 T01700008  RH  033%=      5-min Rain = 0
KCL2 132338Z 19001KT 17/01 A2985 RMK A01 T01680013  RH  035%=      5-min Rain = 0
KCL2 132339Z 19002KT 16/01 A2985 RMK A01 T01640011  RH  035%=      5-min Rain = 0
KCL2 132340Z 19002KT 16/01 A2985 RMK A01 T01620010  RH  036%=      5-min Rain = 0
KCL2 132341Z 19002KT 16/01 A2985 RMK A01 T01600008  RH  036%=      5-min Rain = 0
KCL2 132342Z 19001KT 16/01 A2985 RMK A01 T01570007  RH  036%=      5-min Rain = 0
KCL2 132343Z 19001KT 16/01 A2985 RMK A01 T01560005  RH  036%=      5-min Rain = 0
KCL2 132344Z 19001KT 16/00 A2985 RMK A01 T01580004  RH  035%=      5-min Rain = 0
KCL2 132345Z 19001KT 16/00 A2985 RMK A01 T01610004  RH  035%=      5-min Rain = 0
KCL2 132346Z 19001KT 16/00 A2985 RMK A01 T01630004  RH  034%=      5-min Rain = 0
KCL2 132347Z 19002KT 17/01 A2985 RMK A01 T01650005  RH  034%=      5-min Rain = 0
KCL2 132348Z 20002KT 16/02 A2985 RMK A01 T01620015  RH  037%=      5-min Rain = 0
KCL2 132349Z 20002KT 15/01 A2985 RMK A01 T01540013  RH  038%=      5-min Rain = 0
KCL2 132350Z 20002KT 15/01 A2985 RMK A01 T01490007  RH  038%=      5-min Rain = 0
KCL2 132351Z 20002KT 15/01 A2985 RMK A01 T01460006  RH  038%=      5-min Rain = 0
KCL2 132352Z 20002KT 15/01 A2985 RMK A01 T01460010  RH  039%=      5-min Rain = 0
KCL2 132353Z 20002KT 15/01 A2985 RMK A01 T01470011  RH  040%=      5-min Rain = 0
KCL2 132354Z 20002KT 15/01 A2985 RMK A01 T01460009  RH  039%=      5-min Rain = 0
KCL2 132355Z 20002KT 15/01 A2985 RMK A01 T01450009  RH  040%=      5-min Rain = 0
KCL2 132356Z 20002KT 15/01 A2985 RMK A01 T01450006  RH  039%=      5-min Rain = 0
KCL2 132357Z 20002KT 15/00 A2985 RMK A01 T01480004  RH  037%=      5-min Rain = 0
KCL2 132358Z 21002KT 15/01 A2985 RMK A01 T01510005  RH  037%=      5-min Rain = 0
KCL2 132359Z 20003KT 15/01 A2986 RMK A01 T01510007  RH  037%=      5-min Rain = 0
KCL2 140000Z 20004KT 15/01 A2986 RMK A01 T01500007  RH  038%=      5-min Rain = 0
KCL2 140001Z 20004KT 15/01 A2986 RMK A01 T01450008  RH  039%=      5-min Rain = 0
KCL2 140002Z 20004KT 14/01 A2985 RMK A01 T01410007  RH  040%=      5-min Rain = 0
KCL2 140003Z 20004KT 14/01 A2985 RMK A01 T01380007  RH  041%=      5-min Rain = 0
KCL2 140004Z 19004KT 14/01 A2985 RMK A01 T01370007  RH  041%=      5-min Rain = 0
KCL2 140005Z 19004KT 14/01 A2985 RMK A01 T01350007  RH  042%=      5-min Rain = 0
KCL2 140006Z 19004KT 13/01 A2985 RMK A01 T01340006  RH  042%=      5-min Rain = 0
KCL2 140007Z 19004KT 13/01 A2985 RMK A01 T01340007  RH  042%=      5-min Rain = 0
KCL2 140008Z 20003KT 13/01 A2985 RMK A01 T01340005  RH  041%=      5-min Rain = 0
KCL2 140009Z 21003KT 14/01 A2985 RMK A01 T01360006  RH  041%=      5-min Rain = 0
KCL2 140010Z 21003KT 14/01 A2986 RMK A01 T01400005  RH  040%=      5-min Rain = 0
KCL2 140011Z 21003KT 14/01 A2986 RMK A01 T01440005  RH  039%=      5-min Rain = 0
KCL2 140012Z 21003KT 15/01 A2986 RMK A01 T01470005  RH  038%=      5-min Rain = 0
KCL2 140013Z 21004KT 15/01 A2986 RMK A01 T01470006  RH  038%=      5-min Rain = 0
KCL2 140014Z 22004KT 15/01 A2986 RMK A01 T01470006  RH  038%=      5-min Rain = 0
KCL2 140015Z 22004KT 15/01 A2986 RMK A01 T01470007  RH  039%=      5-min Rain = 0
KCL2 140016Z 22004KT 15/01 A2986 RMK A01 T01450006  RH  039%=      5-min Rain = 0
KCL2 140017Z 22003KT 14/01 A2986 RMK A01 T01440006  RH  039%=      5-min Rain = 0
KCL2 140018Z 21003KT 14/01 A2986 RMK A01 T01430007  RH  039%=      5-min Rain = 0
KCL2 140019Z 21004KT 14/01 A2986 RMK A01 T01410008  RH  040%=      5-min Rain = 0
KCL2 140020Z 21004KT 14/01 A2986 RMK A01 T01360011  RH  042%=      5-min Rain = 0
KCL2 140021Z 21003KT 13/01 A2986 RMK A01 T01320011  RH  044%=      5-min Rain = 0
KCL2 140022Z 21003KT 13/01 A2986 RMK A01 T01300008  RH  043%=      5-min Rain = 0
KCL2 140023Z 21003KT 13/01 A2986 RMK A01 T01310006  RH  043%=      5-min Rain = 0
KCL2 140024Z 21003KT 13/01 A2986 RMK A01 T01330006  RH  042%=      5-min Rain = 0
KCL2 140025Z 21003KT 14/01 A2986 RMK A01 T01360006  RH  041%=      5-min Rain = 0
KCL2 140026Z 21003KT 14/01 A2986 RMK A01 T01380006  RH  041%=      5-min Rain = 0
KCL2 140027Z 21003KT 14/01 A2986 RMK A01 T01380007  RH  041%=      5-min Rain = 0
KCL2 140028Z 20003KT 14/01 A2986 RMK A01 T01350010  RH  043%=      5-min Rain = 0
KCL2 140029Z 20004KT 13/01 A2986 RMK A01 T01310009  RH  043%=      5-min Rain = 0
KCL2 140030Z 20004KT 13/01 A2986 RMK A01 T01300008  RH  043%=      5-min Rain = 0
KCL2 140031Z 20004KT 13/01 A2986 RMK A01 T01310007  RH  043%=      5-min Rain = 0
KCL2 140032Z 20004KT 13/01 A2986 RMK A01 T01310007  RH  043%=      5-min Rain = 0
KCL2 140033Z 20004KT 13/01 A2986 RMK A01 T01310007  RH  043%=      5-min Rain = 0
KCL2 140034Z 21004KT 13/01 A2986 RMK A01 T01310008  RH  043%=      5-min Rain = 0
KCL2 140035Z 21004KT 13/01 A2986 RMK A01 T01310007  RH  043%=      5-min Rain = 0
KCL2 140036Z 20004KT 13/01 A2986 RMK A01 T01300006  RH  043%=      5-min Rain = 0
KCL2 140037Z 20005KT 13/01 A2986 RMK A01 T01310005  RH  042%=      5-min Rain = 0
KCL2 140038Z 20005KT 13/01 A2986 RMK A01 T01310005  RH  042%=      5-min Rain = 0
KCL2 140039Z 20005KT 13/01 A2985 RMK A01 T01300007  RH  043%=      5-min Rain = 0
KCL2 140040Z 19005KT 13/01 A2985 RMK A01 T01280007  RH  043%=      5-min Rain = 0
KCL2 140041Z 19005KT 13/01 A2985 RMK A01 T01270007  RH  044%=      5-min Rain = 0
KCL2 140042Z 19005KT 13/01 A2985 RMK A01 T01270006  RH  044%=      5-min Rain = 0
KCL2 140043Z 19005KT 13/01 A2985 RMK A01 T01290006  RH  043%=      5-min Rain = 0
KCL2 140044Z 19005KT 13/01 A2985 RMK A01 T01310006  RH  042%=      5-min Rain = 0
KCL2 140045Z 18005KT 13/01 A2985 RMK A01 T01330006  RH  042%=      5-min Rain = 0
KCL2 140046Z 18005KT 13/01 A2985 RMK A01 T01340006  RH  041%=      5-min Rain = 0
KCL2 140047Z 18005KT 14/01 A2985 RMK A01 T01350006  RH  041%=      5-min Rain = 0
KCL2 140048Z 18004KT 14/01 A2985 RMK A01 T01350005  RH  041%=      5-min Rain = 0
KCL2 140049Z 18004KT 14/01 A2985 RMK A01 T01360005  RH  041%=      5-min Rain = 0
KCL2 140050Z 18004KT 14/01 A2986 RMK A01 T01380006  RH  041%=      5-min Rain = 0
KCL2 140051Z 18004KT 14/01 A2986 RMK A01 T01380006  RH  040%=      5-min Rain = 0
KCL2 140052Z 18003KT 14/01 A2986 RMK A01 T01380008  RH  041%=      5-min Rain = 0
KCL2 140053Z 17003KT 14/01 A2986 RMK A01 T01370008  RH  041%=      5-min Rain = 0
KCL2 140054Z 17004KT 14/01 A2986 RMK A01 T01370008  RH  041%=      5-min Rain = 0
KCL2 140055Z 17004KT 13/01 A2986 RMK A01 T01340009  RH  042%=      5-min Rain = 0
KCL2 140056Z 17004KT 13/01 A2986 RMK A01 T01290008  RH  044%=      5-min Rain = 0
KCL2 140057Z 17004KT 13/01 A2986 RMK A01 T01260009  RH  044%=      5-min Rain = 0
KCL2 140058Z 17005KT 12/01 A2986 RMK A01 T01240008  RH  045%=      5-min Rain = 0
KCL2 140059Z 17005KT 12/01 A2986 RMK A01 T01230009  RH  045%=      5-min Rain = 0
KCL2 140100Z 17005KT 13/01 A2986 RMK A01 T01250007  RH  044%=      5-min Rain = 0
KCL2 140101Z 17005KT 13/01 A2986 RMK A01 T01290007  RH  043%=      5-min Rain = 0
KCL2 140102Z 17005KT 13/01 A2986 RMK A01 T01330006  RH  042%=      5-min Rain = 0
KCL2 140103Z 16005KT 14/01 A2986 RMK A01 T01350006  RH  041%=      5-min Rain = 0
KCL2 140104Z 15005KT 14/01 A2986 RMK A01 T01370008  RH  041%=      5-min Rain = 0
KCL2 140105Z 15005KT 13/01 A2986 RMK A01 T01320011  RH  044%=      5-min Rain = 0
KCL2 140106Z 14004KT 12/01 A2986 RMK A01 T01240012  RH  046%=      5-min Rain = 0
KCL2 140107Z 14004KT 12/01 A2986 RMK A01 T01180012  RH  048%=      5-min Rain = 0
KCL2 140108Z 15004KT 12/01 A2987 RMK A01 T01150012  RH  049%=      5-min Rain = 0
KCL2 140109Z 15004KT 11/01 A2987 RMK A01 T01140011  RH  049%=      5-min Rain = 0
KCL2 140110Z 16004KT 11/01 A2987 RMK A01 T01140011  RH  049%=      5-min Rain = 0
KCL2 140111Z 16004KT 11/01 A2987 RMK A01 T01120011  RH  050%=      5-min Rain = 0
KCL2 140112Z 16005KT 11/01 A2987 RMK A01 T01110013  RH  051%=      5-min Rain = 0
KCL2 140113Z 16005KT 11/01 A2987 RMK A01 T01090012  RH  051%=      5-min Rain = 0
KCL2 140114Z 16005KT 11/01 A2986 RMK A01 T01080011  RH  051%=      5-min Rain = 0
KCL2 140115Z 16005KT 11/01 A2986 RMK A01 T01110011  RH  050%=      5-min Rain = 0
KCL2 140116Z 16005KT 12/01 A2986 RMK A01 T01150011  RH  049%=      5-min Rain = 0
KCL2 140117Z 15005KT 12/01 A2986 RMK A01 T01180011  RH  048%=      5-min Rain = 0
KCL2 140118Z 15005KT 12/01 A2987 RMK A01 T01220009  RH  046%=      5-min Rain = 0
KCL2 140119Z 14004KT 13/01 A2987 RMK A01 T01250011  RH  046%=      5-min Rain = 0
KCL2 140120Z 12003KT 12/01 A2987 RMK A01 T01240012  RH  047%=      5-min Rain = 0
KCL2 140121Z 10004KT 12/01 A2987 RMK A01 T01200013  RH  048%=      5-min Rain = 0
KCL2 140122Z 09003KT 12/01 A2987 RMK A01 T01160013  RH  049%=      5-min Rain = 0
KCL2 140123Z 09004KT 11/01 A2987 RMK A01 T01080011  RH  051%=      5-min Rain = 0
KCL2 140124Z 10005KT 11/01 A2987 RMK A01 T01070010  RH  051%=      5-min Rain = 0
KCL2 140125Z 10005KT 11/01 A2987 RMK A01 T01100010  RH  050%=      5-min Rain = 0
KCL2 140126Z 10004KT 11/01 A2987 RMK A01 T01120010  RH  049%=      5-min Rain = 0
KCL2 140127Z 10005KT 11/01 A2987 RMK A01 T01140011  RH  049%=      5-min Rain = 0
KCL2 140128Z 10005KT 11/01 A2987 RMK A01 T01140012  RH  050%=      5-min Rain = 0
KCL2 140129Z 11005KT 11/01 A2987 RMK A01 T01130012  RH  050%=      5-min Rain = 0
KCL2 140130Z 11006KT 11/01 A2987 RMK A01 T01130011  RH  049%=      5-min Rain = 0
KCL2 140131Z 11006KT 11/01 A2987 RMK A01 T01130010  RH  049%=      5-min Rain = 0
KCL2 140132Z 11006KT 11/01 A2987 RMK A01 T01110010  RH  050%=      5-min Rain = 0
KCL2 140133Z 11006KT 11/01 A2987 RMK A01 T01090011  RH  051%=      5-min Rain = 0
KCL2 140134Z 11006KT 11/01 A2987 RMK A01 T01060012  RH  052%=      5-min Rain = 0
KCL2 140135Z 11007KT 10/01 A2987 RMK A01 T01040013  RH  053%=      5-min Rain = 0
KCL2 140136Z 11007KT 10/01 A2987 RMK A01 T01040013  RH  053%=      5-min Rain = 0
KCL2 140137Z 11007KT 10/01 A2987 RMK A01 T01030013  RH  054%=      5-min Rain = 0
KCL2 140138Z 11006KT 10/01 A2987 RMK A01 T01020014  RH  054%=      5-min Rain = 0
KCL2 140139Z 11006KT 10/01 A2988 RMK A01 T01020014  RH  054%=      5-min Rain = 0
KCL2 140140Z 11006KT 10/01 A2988 RMK A01 T01030013  RH  054%=      5-min Rain = 0
KCL2 140141Z 11006KT 11/01 A2988 RMK A01 T01060013  RH  053%=      5-min Rain = 0
KCL2 140142Z 11006KT 11/01 A2988 RMK A01 T01070014  RH  052%=      5-min Rain = 0
KCL2 140143Z 11006KT 11/02 A2987 RMK A01 T01080015  RH  053%=      5-min Rain = 0
KCL2 140144Z 11006KT 11/02 A2988 RMK A01 T01070015  RH  053%=      5-min Rain = 0
KCL2 140145Z 12005KT 11/01 A2987 RMK A01 T01060014  RH  053%=      5-min Rain = 0
KCL2 140146Z 12005KT 11/01 A2987 RMK A01 T01060012  RH  052%=      5-min Rain = 0
KCL2 140147Z 12005KT 11/01 A2987 RMK A01 T01080012  RH  051%=      5-min Rain = 0
KCL2 140148Z 13005KT 11/01 A2987 RMK A01 T01110011  RH  050%=      5-min Rain = 0
KCL2 140149Z 13005KT 11/01 A2987 RMK A01 T01130010  RH  049%=      5-min Rain = 0
KCL2 140150Z 13004KT 12/01 A2987 RMK A01 T01160010  RH  048%=      5-min Rain = 0
KCL2 140151Z 14004KT 12/01 A2987 RMK A01 T01160009  RH  048%=      5-min Rain = 0
KCL2 140152Z 14004KT 12/01 A2987 RMK A01 T01170009  RH  047%=      5-min Rain = 0
KCL2 140153Z 14004KT 12/01 A2987 RMK A01 T01190008  RH  047%=      5-min Rain = 0
KCL2 140154Z 13004KT 12/01 A2987 RMK A01 T01200009  RH  046%=      5-min Rain = 0
KCL2 140155Z 14004KT 12/01 A2987 RMK A01 T01200009  RH  047%=      5-min Rain = 0
KCL2 140156Z 14004KT 12/01 A2987 RMK A01 T01190010  RH  047%=      5-min Rain = 0
KCL2 140157Z 13004KT 12/01 A2987 RMK A01 T01180010  RH  048%=      5-min Rain = 0
KCL2 140158Z 14004KT 12/01 A2987 RMK A01 T01170010  RH  048%=      5-min Rain = 0
KCL2 140159Z 14004KT 12/01 A2987 RMK A01 T01170009  RH  048%=      5-min Rain = 0
KCL2 140200Z 14004KT 12/01 A2987 RMK A01 T01170009  RH  048%=      5-min Rain = 0
KCL2 140201Z 14004KT 12/01 A2987 RMK A01 T01170010  RH  048%=      5-min Rain = 0
KCL2 140202Z 14005KT 12/01 A2987 RMK A01 T01170011  RH  048%=      5-min Rain = 0
KCL2 140203Z 13005KT 12/01 A2987 RMK A01 T01170009  RH  048%=      5-min Rain = 0
KCL2 140204Z 14005KT 12/01 A2987 RMK A01 T01170008  RH  047%=      5-min Rain = 0
KCL2 140205Z 14006KT 12/01 A2987 RMK A01 T01180008  RH  047%=      5-min Rain = 0
KCL2 140206Z 14006KT 12/01 A2987 RMK A01 T01180009  RH  047%=      5-min Rain = 0
KCL2 140207Z 14006KT 12/01 A2987 RMK A01 T01180010  RH  047%=      5-min Rain = 0
KCL2 140208Z 14007KT 12/01 A2987 RMK A01 T01190010  RH  047%=      5-min Rain = 0
KCL2 140209Z 14006KT 12/01 A2987 RMK A01 T01200011  RH  047%=      5-min Rain = 0
KCL2 140210Z 15006KT 12/01 A2987 RMK A01 T01210011  RH  047%=      5-min Rain = 0
KCL2 140211Z 15006KT 12/01 A2988 RMK A01 T01220011  RH  047%=      5-min Rain = 0
KCL2 140212Z 15006KT 12/01 A2988 RMK A01 T01230010  RH  046%=      5-min Rain = 0
KCL2 140213Z 15006KT 13/01 A2988 RMK A01 T01260011  RH  045%=      5-min Rain = 0
KCL2 140214Z 14006KT 13/01 A2988 RMK A01 T01270010  RH  045%=      5-min Rain = 0
KCL2 140215Z 14006KT 13/01 A2988 RMK A01 T01280011  RH  045%=      5-min Rain = 0
KCL2 140216Z 15006KT 13/01 A2987 RMK A01 T01280011  RH  045%=      5-min Rain = 0
KCL2 140217Z 15006KT 13/01 A2987 RMK A01 T01270011  RH  045%=      5-min Rain = 0
KCL2 140218Z 15006KT 13/01 A2988 RMK A01 T01270010  RH  045%=      5-min Rain = 0
KCL2 140219Z 15006KT 13/01 A2988 RMK A01 T01280011  RH  045%=      5-min Rain = 0
KCL2 140220Z 15006KT 13/01 A2988 RMK A01 T01270011  RH  045%=      5-min Rain = 0
KCL2 140221Z 16006KT 13/01 A2988 RMK A01 T01270012  RH  046%=      5-min Rain = 0
KCL2 140222Z 16006KT 13/01 A2988 RMK A01 T01250013  RH  046%=      5-min Rain = 0
KCL2 140223Z 16007KT 12/01 A2988 RMK A01 T01240013  RH  047%=      5-min Rain = 0
KCL2 140224Z 16006KT 12/01 A2988 RMK A01 T01230014  RH  047%=      5-min Rain = 0
KCL2 140225Z 15006KT 12/01 A2988 RMK A01 T01230014  RH  047%=      5-min Rain = 0
KCL2 140226Z 15006KT 12/01 A2988 RMK A01 T01220012  RH  047%=      5-min Rain = 0
KCL2 140227Z 15006KT 12/01 A2988 RMK A01 T01230012  RH  046%=      5-min Rain = 0
KCL2 140228Z 15006KT 12/01 A2988 RMK A01 T01240011  RH  046%=      5-min Rain = 0
KCL2 140229Z 15006KT 13/01 A2988 RMK A01 T01260011  RH  046%=      5-min Rain = 0
KCL2 140230Z 16006KT 13/01 A2988 RMK A01 T01260011  RH  046%=      5-min Rain = 0
KCL2 140231Z 15006KT 13/01 A2988 RMK A01 T01260012  RH  046%=      5-min Rain = 0
KCL2 140232Z 15007KT 13/01 A2988 RMK A01 T01250012  RH  046%=      5-min Rain = 0
KCL2 140233Z 15007KT 13/01 A2988 RMK A01 T01260011  RH  046%=      5-min Rain = 0
KCL2 140234Z 15007KT 13/01 A2988 RMK A01 T01270011  RH  045%=      5-min Rain = 0
KCL2 140235Z 15006KT 13/01 A2987 RMK A01 T01280012  RH  045%=      5-min Rain = 0
KCL2 140236Z 15007KT 13/01 A2987 RMK A01 T01280012  RH  045%=      5-min Rain = 0
KCL2 140237Z 15007KT 13/01 A2987 RMK A01 T01290012  RH  045%=      5-min Rain = 0
KCL2 140238Z 16007KT 13/01 A2987 RMK A01 T01300012  RH  045%=      5-min Rain = 0
KCL2 140239Z 15007KT 13/01 A2987 RMK A01 T01310012  RH  044%=      5-min Rain = 0
KCL2 140240Z 15007KT 13/01 A2987 RMK A01 T01310012  RH  044%=      5-min Rain = 0
KCL2 140241Z 15006KT 13/01 A2987 RMK A01 T01320011  RH  044%=      5-min Rain = 0
KCL2 140242Z 15006KT 13/01 A2988 RMK A01 T01320012  RH  044%=      5-min Rain = 0
KCL2 140243Z 15006KT 13/01 A2988 RMK A01 T01320012  RH  044%=      5-min Rain = 0
KCL2 140244Z 16006KT 13/01 A2988 RMK A01 T01320012  RH  044%=      5-min Rain = 0
KCL2 140245Z 16006KT 13/01 A2988 RMK A01 T01310012  RH  044%=      5-min Rain = 0
KCL2 140246Z 15005KT 13/01 A2988 RMK A01 T01310012  RH  044%=      5-min Rain = 0
KCL2 140247Z 15005KT 13/01 A2988 RMK A01 T01310012  RH  044%=      5-min Rain = 0
KCL2 140248Z 15005KT 13/01 A2988 RMK A01 T01310012  RH  044%=      5-min Rain = 0
KCL2 140249Z 16005KT 13/01 A2989 RMK A01 T01300011  RH  044%=      5-min Rain = 0
KCL2 140250Z 15005KT 13/01 A2989 RMK A01 T01290011  RH  045%=      5-min Rain = 0
KCL2 140251Z 16005KT 13/01 A2989 RMK A01 T01260011  RH  045%=      5-min Rain = 0
KCL2 140252Z 15005KT 12/01 A2989 RMK A01 T01240011  RH  046%=      5-min Rain = 0
KCL2 140253Z 15005KT 12/01 A2989 RMK A01 T01230011  RH  046%=      5-min Rain = 0
KCL2 140254Z 16005KT 12/01 A2989 RMK A01 T01240011  RH  046%=      5-min Rain = 0
KCL2 140255Z 15005KT 12/01 A2989 RMK A01 T01240011  RH  046%=      5-min Rain = 0
KCL2 140256Z 15005KT 13/01 A2989 RMK A01 T01250011  RH  046%=      5-min Rain = 0
KCL2 140257Z 15005KT 13/01 A2989 RMK A01 T01260012  RH  046%=      5-min Rain = 0
KCL2 140258Z 15005KT 13/01 A2989 RMK A01 T01250011  RH  046%=      5-min Rain = 0
KCL2 140259Z 15006KT 13/01 A2989 RMK A01 T01250012  RH  046%=      5-min Rain = 0
KCL2 140300Z 15006KT 13/01 A2989 RMK A01 T01250012  RH  046%=      5-min Rain = 0
KCL2 140301Z 15006KT 13/01 A2989 RMK A01 T01250013  RH  046%=      5-min Rain = 0
KCL2 140302Z 15006KT 12/01 A2989 RMK A01 T01240013  RH  046%=      5-min Rain = 0
KCL2 140303Z 15005KT 13/01 A2989 RMK A01 T01250013  RH  046%=      5-min Rain = 0
KCL2 140304Z 15005KT 13/01 A2989 RMK A01 T01260013  RH  046%=      5-min Rain = 0
KCL2 140305Z 15006KT 13/01 A2989 RMK A01 T01260013  RH  046%=      5-min Rain = 0
KCL2 140306Z 15006KT 13/01 A2989 RMK A01 T01270013  RH  046%=      5-min Rain = 0
KCL2 140307Z 15006KT 13/01 A2989 RMK A01 T01260013  RH  046%=      5-min Rain = 0
KCL2 140308Z 16006KT 13/01 A2989 RMK A01 T01250013  RH  046%=      5-min Rain = 0
KCL2 140309Z 16006KT 13/01 A2989 RMK A01 T01250013  RH  046%=      5-min Rain = 0
KCL2 140310Z 16006KT 13/01 A2989 RMK A01 T01250013  RH  046%=      5-min Rain = 0
KCL2 140311Z 16006KT 13/01 A2989 RMK A01 T01250013  RH  047%=      5-min Rain = 0
KCL2 140312Z 16006KT 12/01 A2989 RMK A01 T01240014  RH  047%=      5-min Rain = 0
KCL2 140313Z 16007KT 12/01 A2989 RMK A01 T01210014  RH  048%=      5-min Rain = 0
KCL2 140314Z 17007KT 12/01 A2989 RMK A01 T01200014  RH  048%=      5-min Rain = 0
KCL2 140315Z 17006KT 12/01 A2989 RMK A01 T01180014  RH  049%=      5-min Rain = 0
KCL2 140316Z 17007KT 12/02 A2989 RMK A01 T01180015  RH  049%=      5-min Rain = 0
KCL2 140317Z 17007KT 12/02 A2989 RMK A01 T01170016  RH  050%=      5-min Rain = 0
KCL2 140318Z 17007KT 12/02 A2989 RMK A01 T01170016  RH  050%=      5-min Rain = 0
KCL2 140319Z 17007KT 12/02 A2989 RMK A01 T01150016  RH  050%=      5-min Rain = 0
KCL2 140320Z 17007KT 11/02 A2989 RMK A01 T01140016  RH  051%=      5-min Rain = 0
KCL2 140321Z 17006KT 11/02 A2989 RMK A01 T01130016  RH  051%=      5-min Rain = 0
KCL2 140322Z 17006KT 11/02 A2989 RMK A01 T01130016  RH  051%=      5-min Rain = 0
KCL2 140323Z 17006KT 11/02 A2989 RMK A01 T01130016  RH  051%=      5-min Rain = 0
KCL2 140324Z 17006KT 11/02 A2989 RMK A01 T01120016  RH  051%=      5-min Rain = 0
KCL2 140325Z 17006KT 11/02 A2989 RMK A01 T01120016  RH  051%=      5-min Rain = 0
KCL2 140326Z 17007KT 11/02 A2989 RMK A01 T01120015  RH  051%=      5-min Rain = 0
KCL2 140327Z 17006KT 11/02 A2989 RMK A01 T01130015  RH  051%=      5-min Rain = 0
KCL2 140328Z 17006KT 11/02 A2989 RMK A01 T01140016  RH  051%=      5-min Rain = 0
KCL2 140329Z 17006KT 12/02 A2988 RMK A01 T01160016  RH  050%=      5-min Rain = 0
KCL2 140330Z 17007KT 12/02 A2988 RMK A01 T01170016  RH  050%=      5-min Rain = 0
KCL2 140331Z 17007KT 12/02 A2988 RMK A01 T01170016  RH  050%=      5-min Rain = 0
KCL2 140332Z 17007KT 12/02 A2988 RMK A01 T01170015  RH  050%=      5-min Rain = 0
KCL2 140333Z 17007KT 12/02 A2988 RMK A01 T01160015  RH  050%=      5-min Rain = 0
KCL2 140334Z 17007KT 12/02 A2988 RMK A01 T01160015  RH  050%=      5-min Rain = 0
KCL2 140335Z 17007KT 12/02 A2988 RMK A01 T01150015  RH  050%=      5-min Rain = 0
KCL2 140336Z 17007KT 12/01 A2988 RMK A01 T01150014  RH  050%=      5-min Rain = 0
KCL2 140337Z 17007KT 12/01 A2988 RMK A01 T01150014  RH  050%=      5-min Rain = 0
KCL2 140338Z 17007KT 12/01 A2988 RMK A01 T01150014  RH  050%=      5-min Rain = 0
KCL2 140339Z 17007KT 12/01 A2988 RMK A01 T01160014  RH  050%=      5-min Rain = 0
KCL2 140340Z 17007KT 12/02 A2988 RMK A01 T01160015  RH  050%=      5-min Rain = 0
KCL2 140341Z 17007KT 12/02 A2988 RMK A01 T01160015  RH  050%=      5-min Rain = 0
KCL2 140342Z 17007KT 12/02 A2988 RMK A01 T01160015  RH  050%=      5-min Rain = 0
KCL2 140343Z 17006KT 12/01 A2988 RMK A01 T01160014  RH  050%=      5-min Rain = 0
KCL2 140344Z 17007KT 12/01 A2988 RMK A01 T01160013  RH  049%=      5-min Rain = 0
KCL2 140345Z 17007KT 12/01 A2988 RMK A01 T01160013  RH  049%=      5-min Rain = 0
KCL2 140346Z 17007KT 12/01 A2988 RMK A01 T01160013  RH  049%=      5-min Rain = 0
KCL2 140347Z 17007KT 12/01 A2988 RMK A01 T01150014  RH  050%=      5-min Rain = 0
KCL2 140348Z 17008KT 11/01 A2988 RMK A01 T01140014  RH  050%=      5-min Rain = 0
KCL2 140349Z 17008KT 11/01 A2988 RMK A01 T01140014  RH  050%=      5-min Rain = 0
KCL2 140350Z 17007KT 11/02 A2988 RMK A01 T01130015  RH  051%=      5-min Rain = 0
KCL2 140351Z 17007KT 11/01 A2988 RMK A01 T01120014  RH  051%=      5-min Rain = 0
KCL2 140352Z 17007KT 11/01 A2988 RMK A01 T01120014  RH  051%=      5-min Rain = 0
KCL2 140353Z 17007KT 11/01 A2988 RMK A01 T01120014  RH  051%=      5-min Rain = 0
KCL2 140354Z 17007KT 11/01 A2988 RMK A01 T01120014  RH  051%=      5-min Rain = 0
KCL2 140355Z 17007KT 11/01 A2988 RMK A01 T01120014  RH  051%=      5-min Rain = 0
KCL2 140356Z 17007KT 11/01 A2988 RMK A01 T01130014  RH  051%=      5-min Rain = 0
KCL2 140357Z 17007KT 11/01 A2988 RMK A01 T01130014  RH  050%=      5-min Rain = 0
KCL2 140358Z 17007KT 11/01 A2988 RMK A01 T01140014  RH  050%=      5-min Rain = 0
KCL2 140359Z 17007KT 12/02 A2988 RMK A01 T01150015  RH  050%=      5-min Rain = 0
KCL2 140400Z 17007KT 12/02 A2988 RMK A01 T01150015  RH  050%=      5-min Rain = 0
KCL2 140401Z 17007KT 12/02 A2988 RMK A01 T01150015  RH  050%=      5-min Rain = 0
KCL2 140402Z 17007KT 12/01 A2988 RMK A01 T01160014  RH  050%=      5-min Rain = 0
KCL2 140403Z 17007KT 12/02 A2988 RMK A01 T01160015  RH  050%=      5-min Rain = 0
KCL2 140404Z 17006KT 12/01 A2988 RMK A01 T01160014  RH  049%=      5-min Rain = 0
KCL2 140405Z 17007KT 12/01 A2988 RMK A01 T01160014  RH  049%=      5-min Rain = 0
KCL2 140406Z 17007KT 12/01 A2988 RMK A01 T01160014  RH  049%=      5-min Rain = 0
KCL2 140407Z 17007KT 12/01 A2988 RMK A01 T01160013  RH  049%=      5-min Rain = 0
KCL2 140408Z 17008KT 12/01 A2988 RMK A01 T01160014  RH  049%=      5-min Rain = 0
KCL2 140409Z 18008KT 12/01 A2988 RMK A01 T01150014  RH  050%=      5-min Rain = 0
KCL2 140410Z 18008KT 12/01 A2988 RMK A01 T01150014  RH  050%=      5-min Rain = 0
KCL2 140411Z 18009KT 12/02 A2988 RMK A01 T01150015  RH  050%=      5-min Rain = 0
KCL2 140412Z 17008KT 12/02 A2988 RMK A01 T01150015  RH  050%=      5-min Rain = 0
KCL2 140413Z 17008KT 12/02 A2988 RMK A01 T01160016  RH  050%=      5-min Rain = 0
KCL2 140414Z 17008KT 12/02 A2987 RMK A01 T01160016  RH  050%=      5-min Rain = 0
KCL2 140415Z 17008KT 12/02 A2987 RMK A01 T01160016  RH  050%=      5-min Rain = 0
KCL2 140416Z 17008KT 12/02 A2987 RMK A01 T01170016  RH  050%=      5-min Rain = 0
KCL2 140417Z 18008KT 12/02 A2988 RMK A01 T01160015  RH  050%=      5-min Rain = 0
KCL2 140418Z 17008KT 12/02 A2988 RMK A01 T01170015  RH  050%=      5-min Rain = 0
KCL2 140419Z 18007KT 12/02 A2988 RMK A01 T01160015  RH  050%=      5-min Rain = 0
KCL2 140420Z 18007KT 12/02 A2988 RMK A01 T01150015  RH  050%=      5-min Rain = 0
KCL2 140421Z 18008KT 11/02 A2988 RMK A01 T01140015  RH  050%=      5-min Rain = 0
KCL2 140422Z 18008KT 11/01 A2988 RMK A01 T01130014  RH  051%=      5-min Rain = 0
KCL2 140423Z 18008KT 11/02 A2988 RMK A01 T01130015  RH  051%=      5-min Rain = 0
KCL2 140424Z 18008KT 12/02 A2988 RMK A01 T01170015  RH  049%=      5-min Rain = 0
KCL2 140425Z 17008KT 12/02 A2987 RMK A01 T01190015  RH  049%=      5-min Rain = 0
KCL2 140426Z 17008KT 12/01 A2987 RMK A01 T01180014  RH  049%=      5-min Rain = 0
KCL2 140427Z 17008KT 12/01 A2987 RMK A01 T01170013  RH  049%=      5-min Rain = 0
KCL2 140428Z 17007KT 12/01 A2987 RMK A01 T01160013  RH  049%=      5-min Rain = 0
KCL2 140429Z 18008KT 12/01 A2987 RMK A01 T01150013  RH  050%=      5-min Rain = 0
KCL2 140430Z 17008KT 12/01 A2987 RMK A01 T01150013  RH  050%=      5-min Rain = 0
KCL2 140431Z 18008KT 12/01 A2987 RMK A01 T01150014  RH  050%=      5-min Rain = 0
KCL2 140432Z 18008KT 12/01 A2987 RMK A01 T01150014  RH  050%=      5-min Rain = 0
KCL2 140433Z 18009KT 12/01 A2987 RMK A01 T01150014  RH  050%=      5-min Rain = 0
KCL2 140434Z 18009KT 11/01 A2987 RMK A01 T01140014  RH  050%=      5-min Rain = 0
KCL2 140435Z 18009KT 11/01 A2987 RMK A01 T01140014  RH  050%=      5-min Rain = 0
KCL2 140436Z 18009KT 11/01 A2987 RMK A01 T01140014  RH  050%=      5-min Rain = 0
KCL2 140437Z 18008KT 12/01 A2987 RMK A01 T01150014  RH  050%=      5-min Rain = 0
KCL2 140438Z 18008KT 12/01 A2987 RMK A01 T01150014  RH  050%=      5-min Rain = 0
KCL2 140439Z 18008KT 12/01 A2987 RMK A01 T01150014  RH  050%=      5-min Rain = 0
KCL2 140440Z 18009KT 12/01 A2987 RMK A01 T01150013  RH  050%=      5-min Rain = 0
KCL2 140441Z 18008KT 12/01 A2987 RMK A01 T01160013  RH  049%=      5-min Rain = 0
KCL2 140442Z 18008KT 12/01 A2987 RMK A01 T01150013  RH  049%=      5-min Rain = 0
KCL2 140443Z 18008KT 12/01 A2987 RMK A01 T01160014  RH  049%=      5-min Rain = 0
KCL2 140444Z 18008KT 12/01 A2987 RMK A01 T01160013  RH  049%=      5-min Rain = 0
KCL2 140445Z 18008KT 12/01 A2987 RMK A01 T01170013  RH  049%=      5-min Rain = 0
KCL2 140446Z 18009KT 12/01 A2987 RMK A01 T01170013  RH  049%=      5-min Rain = 0
KCL2 140447Z 18009KT 12/01 A2987 RMK A01 T01160013  RH  049%=      5-min Rain = 0
KCL2 140448Z 18009KT 12/01 A2987 RMK A01 T01170013  RH  049%=      5-min Rain = 0
KCL2 140449Z 18008KT 12/01 A2987 RMK A01 T01160013  RH  049%=      5-min Rain = 0
KCL2 140450Z 18008KT 12/01 A2987 RMK A01 T01160013  RH  049%=      5-min Rain = 0
KCL2 140451Z 18008KT 12/01 A2987 RMK A01 T01160013  RH  049%=      5-min Rain = 0
KCL2 140452Z 18008KT 12/01 A2987 RMK A01 T01150013  RH  049%=      5-min Rain = 0
KCL2 140453Z 18008KT 12/01 A2988 RMK A01 T01150013  RH  050%=      5-min Rain = 0
KCL2 140454Z 18008KT 12/01 A2988 RMK A01 T01160013  RH  049%=      5-min Rain = 0
KCL2 140455Z 18007KT 12/01 A2988 RMK A01 T01180013  RH  049%=      5-min Rain = 0
KCL2 140456Z 18007KT 12/01 A2988 RMK A01 T01180013  RH  048%=      5-min Rain = 0
KCL2 140457Z 18007KT 12/01 A2988 RMK A01 T01180013  RH  048%=      5-min Rain = 0
KCL2 140458Z 18007KT 12/01 A2989 RMK A01 T01160012  RH  049%=      5-min Rain = 0
KCL2 140459Z 18007KT 12/01 A2989 RMK A01 T01150012  RH  049%=      5-min Rain = 0
KCL2 140500Z 18008KT 11/01 A2988 RMK A01 T01140012  RH  049%=      5-min Rain = 0
KCL2 140501Z 18008KT 11/01 A2988 RMK A01 T01130012  RH  050%=      5-min Rain = 0
KCL2 140502Z 18007KT 11/01 A2988 RMK A01 T01130012  RH  050%=      5-min Rain = 0
KCL2 140503Z 18007KT 11/01 A2988 RMK A01 T01130012  RH  050%=      5-min Rain = 0
KCL2 140504Z 18007KT 11/01 A2988 RMK A01 T01130012  RH  050%=      5-min Rain = 0
KCL2 140505Z 18007KT 11/01 A2989 RMK A01 T01130012  RH  050%=      5-min Rain = 0
KCL2 140506Z 18007KT 11/01 A2989 RMK A01 T01120012  RH  050%=      5-min Rain = 0
KCL2 140507Z 18007KT 11/01 A2989 RMK A01 T01130012  RH  050%=      5-min Rain = 0
KCL2 140508Z 18007KT 11/01 A2989 RMK A01 T01120011  RH  050%=      5-min Rain = 0
KCL2 140509Z 18007KT 11/01 A2989 RMK A01 T01130011  RH  050%=      5-min Rain = 0
KCL2 140510Z 18007KT 11/01 A2988 RMK A01 T01130011  RH  050%=      5-min Rain = 0
KCL2 140511Z 18007KT 11/01 A2988 RMK A01 T01120011  RH  050%=      5-min Rain = 0
KCL2 140512Z 18006KT 11/01 A2988 RMK A01 T01120011  RH  050%=      5-min Rain = 0
KCL2 140513Z 18006KT 11/01 A2989 RMK A01 T01120012  RH  050%=      5-min Rain = 0
KCL2 140514Z 18006KT 11/01 A2989 RMK A01 T01120012  RH  050%=      5-min Rain = 0
KCL2 140515Z 17006KT 11/01 A2989 RMK A01 T01110011  RH  050%=      5-min Rain = 0
KCL2 140516Z 17006KT 11/01 A2989 RMK A01 T01120012  RH  050%=      5-min Rain = 0
KCL2 140517Z 17006KT 11/01 A2989 RMK A01 T01110011  RH  050%=      5-min Rain = 0
KCL2 140518Z 18007KT 11/01 A2989 RMK A01 T01120012  RH  050%=      5-min Rain = 0
KCL2 140519Z 18007KT 11/01 A2989 RMK A01 T01120011  RH  050%=      5-min Rain = 0
KCL2 140520Z 18007KT 11/01 A2989 RMK A01 T01120011  RH  050%=      5-min Rain = 0
KCL2 140521Z 18007KT 11/01 A2989 RMK A01 T01120011  RH  050%=      5-min Rain = 0
KCL2 140522Z 18007KT 11/01 A2989 RMK A01 T01120012  RH  050%=      5-min Rain = 0
KCL2 140523Z 18007KT 11/01 A2989 RMK A01 T01120012  RH  050%=      5-min Rain = 0
KCL2 140524Z 18007KT 11/01 A2989 RMK A01 T01120012  RH  050%=      5-min Rain = 0
KCL2 140525Z 18007KT 11/01 A2989 RMK A01 T01130012  RH  050%=      5-min Rain = 0
KCL2 140526Z 18007KT 11/01 A2989 RMK A01 T01130013  RH  050%=      5-min Rain = 0
KCL2 140527Z 18007KT 11/01 A2989 RMK A01 T01130012  RH  050%=      5-min Rain = 0
KCL2 140528Z 18007KT 11/01 A2989 RMK A01 T01130013  RH  050%=      5-min Rain = 0
KCL2 140529Z 18007KT 11/01 A2989 RMK A01 T01130012  RH  050%=      5-min Rain = 0
KCL2 140530Z 18007KT 11/01 A2989 RMK A01 T01120013  RH  050%=      5-min Rain = 0
KCL2 140531Z 18007KT 11/01 A2989 RMK A01 T01120013  RH  050%=      5-min Rain = 0
KCL2 140532Z 18008KT 11/01 A2989 RMK A01 T01110013  RH  051%=      5-min Rain = 0
KCL2 140533Z 17007KT 11/01 A2988 RMK A01 T01110013  RH  051%=      5-min Rain = 0
KCL2 140534Z 18007KT 11/01 A2988 RMK A01 T01110013  RH  051%=      5-min Rain = 0
KCL2 140535Z 17007KT 11/01 A2988 RMK A01 T01110013  RH  051%=      5-min Rain = 0
KCL2 140536Z 17007KT 11/01 A2988 RMK A01 T01110013  RH  051%=      5-min Rain = 0
KCL2 140537Z 18007KT 11/01 A2988 RMK A01 T01110013  RH  051%=      5-min Rain = 0
KCL2 140538Z 17007KT 11/01 A2988 RMK A01 T01120013  RH  051%=      5-min Rain = 0
KCL2 140539Z 18006KT 11/01 A2989 RMK A01 T01120013  RH  051%=      5-min Rain = 0
KCL2 140540Z 18007KT 11/01 A2989 RMK A01 T01120013  RH  051%=      5-min Rain = 0
KCL2 140541Z 17006KT 11/01 A2989 RMK A01 T01120013  RH  051%=      5-min Rain = 0
KCL2 140542Z 17006KT 11/01 A2989 RMK A01 T01120013  RH  051%=      5-min Rain = 0
KCL2 140543Z 17006KT 11/01 A2989 RMK A01 T01120013  RH  051%=      5-min Rain = 0
KCL2 140544Z 17006KT 11/01 A2989 RMK A01 T01120014  RH  051%=      5-min Rain = 0
KCL2 140545Z 17006KT 11/01 A2988 RMK A01 T01120013  RH  051%=      5-min Rain = 0
KCL2 140546Z 17006KT 11/01 A2988 RMK A01 T01120014  RH  051%=      5-min Rain = 0
KCL2 140547Z 17006KT 11/01 A2988 RMK A01 T01110014  RH  051%=      5-min Rain = 0
KCL2 140548Z 18006KT 11/01 A2989 RMK A01 T01100013  RH  051%=      5-min Rain = 0
KCL2 140549Z 18007KT 11/01 A2989 RMK A01 T01100013  RH  051%=      5-min Rain = 0
KCL2 140550Z 18007KT 11/01 A2988 RMK A01 T01090012  RH  051%=      5-min Rain = 0
KCL2 140551Z 18007KT 11/01 A2988 RMK A01 T01090013  RH  051%=      5-min Rain = 0
KCL2 140552Z 18008KT 11/01 A2988 RMK A01 T01080013  RH  052%=      5-min Rain = 0
KCL2 140553Z 18008KT 11/01 A2988 RMK A01 T01080014  RH  052%=      5-min Rain = 0
KCL2 140554Z 18007KT 11/02 A2988 RMK A01 T01080015  RH  053%=      5-min Rain = 0
KCL2 140555Z 18007KT 11/01 A2988 RMK A01 T01070014  RH  053%=      5-min Rain = 0
KCL2 140556Z 18007KT 11/02 A2988 RMK A01 T01080015  RH  053%=      5-min Rain = 0
KCL2 140557Z 18007KT 11/01 A2988 RMK A01 T01080014  RH  052%=      5-min Rain = 0
KCL2 140558Z 18007KT 11/01 A2988 RMK A01 T01090014  RH  052%=      5-min Rain = 0
KCL2 140559Z 18007KT 11/01 A2988 RMK A01 T01090014  RH  052%=      5-min Rain = 0

Page generated in 0.0655 seconds.